Wetterdaten: Dienstag, 01.05.2018
Datum Zeit Temp. Aussen Temp. o. S. +5cm Feuchte Auss BlattFeu 1 Luftdruck Regen Sonnenschein Regendauer Solar Windben Empfang
01.05.2018 00:00 6,4 C 5,6 C 4,4 C 91 % 15 lf 1000,8 hPa 0,0 l/m 0 min 2 min 0 W/m 38,3 km/h (5 Bft) 97,87 %
01.05.2018 00:02 6,4 C 5,6 C 4,4 C 91 % 15 lf 1000,9 hPa 0,0 l/m 0 min 2 min 0 W/m 40,6 km/h (6 Bft) 97,67 %
01.05.2018 00:04 6,4 C 5,6 C 4,4 C 91 % 15 lf 1000,9 hPa 0,0 l/m 0 min 2 min 0 W/m 38,3 km/h (5 Bft) 95,74 %
01.05.2018 00:07 6,4 C 5,0 C 4,4 C 91 % 15 lf 1000,9 hPa 0,0 l/m 0 min 3 min 0 W/m 38,3 km/h (5 Bft) 95,74 %
01.05.2018 00:08 6,4 C 5,0 C 4,4 C 91 % 15 lf 1000,9 hPa 0,0 l/m 0 min 1 min 0 W/m 38,3 km/h (5 Bft) 95,74 %
01.05.2018 00:10 6,4 C 5,0 C 4,4 C 91 % 15 lf 1000,9 hPa 0,0 l/m 0 min 2 min 0 W/m 40,6 km/h (6 Bft) 95,74 %
01.05.2018 00:12 6,4 C 5,0 C 4,4 C 91 % 15 lf 1001,0 hPa 0,0 l/m 0 min 2 min 0 W/m 40,6 km/h (6 Bft) 95,74 %
01.05.2018 00:14 6,4 C 5,0 C 4,4 C 91 % 15 lf 1001,0 hPa 0,0 l/m 0 min 2 min 0 W/m 40,6 km/h (6 Bft) 96,61 %
01.05.2018 00:16 6,4 C 5,0 C 4,4 C 91 % 15 lf 1001,0 hPa 0,0 l/m 0 min 2 min 0 W/m 31,5 km/h (5 Bft) 100,00 %
01.05.2018 00:18 6,3 C 5,0 C 4,4 C 91 % 15 lf 1001,2 hPa 0,0 l/m 0 min 2 min 0 W/m 20,3 km/h (4 Bft) 100,00 %
01.05.2018 00:20 6,3 C 5,0 C 5,0 C 91 % 15 lf 1001,1 hPa 0,0 l/m 0 min 2 min 0 W/m 33,8 km/h (5 Bft) 100,00 %
01.05.2018 00:22 6,3 C 5,0 C 4,4 C 91 % 15 lf 1001,2 hPa 0,0 l/m 0 min 2 min 0 W/m 38,3 km/h (5 Bft) 100,00 %
01.05.2018 00:24 6,3 C 5,0 C 4,4 C 91 % 15 lf 1001,3 hPa 0,0 l/m 0 min 2 min 0 W/m 31,5 km/h (5 Bft) 100,00 %
01.05.2018 00:26 6,3 C 5,0 C 4,4 C 91 % 15 lf 1001,2 hPa 0,0 l/m 0 min 2 min 0 W/m 36,0 km/h (5 Bft) 100,00 %
01.05.2018 00:28 6,3 C 5,0 C 4,4 C 91 % 15 lf 1001,3 hPa 0,0 l/m 0 min 2 min 0 W/m 29,3 km/h (5 Bft) 100,00 %
01.05.2018 00:30 6,3 C 5,0 C 4,4 C 91 % 15 lf 1001,3 hPa 0,0 l/m 0 min 2 min 0 W/m 31,5 km/h (5 Bft) 100,00 %
01.05.2018 00:32 6,3 C 5,0 C 4,4 C 91 % 15 lf 1001,4 hPa 0,0 l/m 0 min 2 min 0 W/m 31,5 km/h (5 Bft) 100,00 %
01.05.2018 00:34 6,2 C 5,0 C 4,4 C 91 % 15 lf 1001,4 hPa 0,0 l/m 0 min 2 min 0 W/m 47,3 km/h (6 Bft) 95,74 %
01.05.2018 00:38 6,2 C 5,0 C 4,4 C 92 % 15 lf 1001,4 hPa 0,0 l/m 0 min 4 min 0 W/m 42,8 km/h (6 Bft) 95,74 %
01.05.2018 00:40 6,2 C 5,0 C 4,4 C 92 % 15 lf 1001,4 hPa 0,0 l/m 0 min 2 min 0 W/m 40,6 km/h (6 Bft) 97,87 %
01.05.2018 00:42 6,2 C 5,0 C 4,4 C 92 % 15 lf 1001,4 hPa 0,0 l/m 0 min 2 min 0 W/m 29,3 km/h (5 Bft) 97,83 %
01.05.2018 00:44 6,2 C 5,0 C 4,4 C 92 % 15 lf 1001,5 hPa 0,0 l/m 0 min 2 min 0 W/m 22,5 km/h (4 Bft) 97,87 %
01.05.2018 00:46 6,2 C 5,0 C 4,4 C 92 % 15 lf 1001,5 hPa 0,0 l/m 0 min 2 min 0 W/m 36,0 km/h (5 Bft) 95,74 %
01.05.2018 00:48 6,2 C 5,0 C 4,4 C 92 % 15 lf 1001,5 hPa 0,0 l/m 0 min 2 min 0 W/m 22,5 km/h (4 Bft) 97,87 %
01.05.2018 00:50 6,2 C 5,0 C 4,4 C 92 % 15 lf 1001,5 hPa 0,0 l/m 0 min 2 min 0 W/m 42,8 km/h (6 Bft) 95,74 %
01.05.2018 00:52 6,2 C 5,0 C 4,4 C 92 % 15 lf 1001,5 hPa 0,0 l/m 0 min 2 min 0 W/m 40,6 km/h (6 Bft) 95,74 %
01.05.2018 00:54 6,2 C 5,0 C 4,4 C 92 % 15 lf 1001,6 hPa 0,0 l/m 0 min 2 min 0 W/m 24,8 km/h (4 Bft) 95,65 %
01.05.2018 00:56 6,2 C 5,0 C 4,4 C 92 % 15 lf 1001,6 hPa 0,0 l/m 0 min 2 min 0 W/m 29,3 km/h (5 Bft) 93,62 %
01.05.2018 00:58 6,2 C 5,0 C 4,4 C 92 % 15 lf 1001,6 hPa 0,0 l/m 0 min 2 min 0 W/m 33,8 km/h (5 Bft) 95,74 %
01.05.2018 01:00 6,2 C 5,0 C 4,4 C 92 % 15 lf 1001,6 hPa 0,0 l/m 0 min 2 min 0 W/m 40,6 km/h (6 Bft) 95,74 %
01.05.2018 01:02 6,2 C 5,0 C 4,4 C 93 % 15 lf 1001,8 hPa 0,0 l/m 0 min 2 min 0 W/m 42,8 km/h (6 Bft) 91,49 %
01.05.2018 01:04 6,2 C 5,0 C 4,4 C 92 % 15 lf 1001,7 hPa 0,0 l/m 0 min 2 min 0 W/m 33,8 km/h (5 Bft) 93,62 %
01.05.2018 01:08 6,2 C 5,0 C 4,4 C 92 % 15 lf 1001,9 hPa 0,0 l/m 0 min 4 min 0 W/m 45,1 km/h (6 Bft) 92,47 %
01.05.2018 01:10 6,2 C 5,0 C 4,4 C 92 % 15 lf 1001,8 hPa 0,0 l/m 0 min 2 min 0 W/m 40,6 km/h (6 Bft) 97,87 %
01.05.2018 01:12 6,1 C 5,0 C 4,4 C 92 % 15 lf 1001,8 hPa 0,0 l/m 0 min 2 min 0 W/m 49,6 km/h (6 Bft) 91,49 %
01.05.2018 01:14 6,2 C 5,0 C 4,4 C 92 % 15 lf 1002,0 hPa 0,0 l/m 0 min 2 min 0 W/m 42,8 km/h (6 Bft) 93,62 %
01.05.2018 01:16 6,1 C 5,0 C 4,4 C 92 % 15 lf 1002,0 hPa 0,0 l/m 0 min 2 min 0 W/m 29,3 km/h (5 Bft) 91,49 %
01.05.2018 01:18 6,1 C 5,0 C 4,4 C 92 % 15 lf 1002,0 hPa 0,0 l/m 0 min 2 min 0 W/m 45,1 km/h (6 Bft) 93,48 %
01.05.2018 01:20 6,1 C 5,0 C 4,4 C 92 % 15 lf 1002,0 hPa 0,0 l/m 0 min 2 min 0 W/m 47,3 km/h (6 Bft) 95,74 %
01.05.2018 01:22 6,1 C 5,0 C 4,4 C 92 % 15 lf 1002,0 hPa 0,0 l/m 0 min 2 min 0 W/m 36,0 km/h (5 Bft) 97,87 %
01.05.2018 01:24 6,2 C 5,0 C 4,4 C 92 % 15 lf 1002,1 hPa 0,0 l/m 0 min 2 min 0 W/m 38,3 km/h (5 Bft) 93,62 %
01.05.2018 01:26 6,2 C 5,0 C 4,4 C 92 % 15 lf 1002,1 hPa 0,0 l/m 0 min 2 min 0 W/m 36,0 km/h (5 Bft) 91,49 %
01.05.2018 01:28 6,2 C 5,0 C 4,4 C 92 % 15 lf 1002,1 hPa 0,0 l/m 0 min 2 min 0 W/m 40,6 km/h (6 Bft) 95,74 %
01.05.2018 01:30 6,2 C 5,0 C 4,4 C 92 % 15 lf 1002,1 hPa 0,0 l/m 0 min 2 min 0 W/m 38,3 km/h (5 Bft) 95,65 %
01.05.2018 01:32 6,2 C 5,0 C 4,4 C 92 % 15 lf 1002,2 hPa 0,0 l/m 0 min 2 min 0 W/m 51,8 km/h (7 Bft) 97,87 %
01.05.2018 01:34 6,2 C 5,0 C 4,4 C 92 % 15 lf 1002,2 hPa 0,0 l/m 0 min 2 min 0 W/m 47,3 km/h (6 Bft) 95,74 %
01.05.2018 01:38 6,2 C 5,0 C 4,4 C 92 % 15 lf 1002,2 hPa 0,0 l/m 0 min 4 min 0 W/m 42,8 km/h (6 Bft) 97,87 %
01.05.2018 01:40 6,1 C 5,0 C 4,4 C 92 % 15 lf 1002,3 hPa 0,0 l/m 0 min 2 min 0 W/m 33,8 km/h (5 Bft) 93,62 %
01.05.2018 01:42 6,1 C 5,0 C 4,4 C 92 % 15 lf 1002,3 hPa 0,0 l/m 0 min 2 min 0 W/m 40,6 km/h (6 Bft) 97,83 %
01.05.2018 01:44 6,1 C 5,0 C 4,4 C 92 % 15 lf 1002,3 hPa 0,0 l/m 0 min 2 min 0 W/m 38,3 km/h (5 Bft) 97,87 %
01.05.2018 01:46 6,1 C 5,0 C 4,4 C 92 % 15 lf 1002,4 hPa 0,0 l/m 0 min 2 min 0 W/m 29,3 km/h (5 Bft) 95,74 %
01.05.2018 01:48 6,1 C 5,0 C 4,4 C 92 % 15 lf 1002,3 hPa 0,0 l/m 0 min 2 min 0 W/m 29,3 km/h (5 Bft) 95,74 %
01.05.2018 01:50 6,1 C 5,0 C 4,4 C 92 % 15 lf 1002,4 hPa 0,0 l/m 0 min 2 min 0 W/m 36,0 km/h (5 Bft) 97,87 %
01.05.2018 01:52 6,1 C 5,0 C 4,4 C 92 % 15 lf 1002,4 hPa 0,0 l/m 0 min 2 min 0 W/m 33,8 km/h (5 Bft) 97,83 %
01.05.2018 01:54 6,0 C 5,0 C 4,4 C 92 % 15 lf 1002,3 hPa 0,0 l/m 0 min 2 min 0 W/m 45,1 km/h (6 Bft) 93,62 %
01.05.2018 01:56 6,0 C 5,0 C 4,4 C 92 % 15 lf 1002,4 hPa 0,0 l/m 0 min 2 min 0 W/m 45,1 km/h (6 Bft) 97,87 %
01.05.2018 01:58 6,0 C 5,0 C 4,4 C 92 % 15 lf 1002,4 hPa 0,0 l/m 0 min 2 min 0 W/m 33,8 km/h (5 Bft) 95,74 %
01.05.2018 02:00 5,9 C 5,0 C 4,4 C 92 % 15 lf 1002,4 hPa 0,0 l/m 0 min 2 min 0 W/m 38,3 km/h (5 Bft) 95,74 %
01.05.2018 02:02 5,9 C 5,0 C 4,4 C 92 % 15 lf 1002,5 hPa 0,0 l/m 0 min 2 min 0 W/m 40,6 km/h (6 Bft) 97,87 %
01.05.2018 02:04 5,9 C 5,0 C 4,4 C 92 % 15 lf 1002,5 hPa 0,0 l/m 0 min 2 min 0 W/m 42,8 km/h (6 Bft) 97,83 %
01.05.2018 02:08 5,9 C 5,0 C 4,4 C 92 % 15 lf 1002,6 hPa 0,0 l/m 0 min 4 min 0 W/m 42,8 km/h (6 Bft) 97,87 %
01.05.2018 02:10 5,9 C 5,0 C 4,4 C 92 % 15 lf 1002,6 hPa 0,0 l/m 0 min 2 min 0 W/m 51,8 km/h (7 Bft) 97,87 %
01.05.2018 02:12 5,9 C 5,0 C 4,4 C 93 % 15 lf 1002,6 hPa 0,0 l/m 0 min 2 min 0 W/m 42,8 km/h (6 Bft) 100,00 %
01.05.2018 02:14 5,8 C 5,0 C 4,4 C 93 % 15 lf 1002,6 hPa 0,0 l/m 0 min 2 min 0 W/m 45,1 km/h (6 Bft) 95,74 %
01.05.2018 02:16 5,8 C 5,0 C 4,4 C 92 % 15 lf 1002,7 hPa 0,0 l/m 0 min 2 min 0 W/m 49,6 km/h (6 Bft) 100,00 %
01.05.2018 02:18 5,8 C 5,0 C 4,4 C 92 % 15 lf 1002,6 hPa 0,0 l/m 0 min 2 min 0 W/m 47,3 km/h (6 Bft) 95,65 %
01.05.2018 02:20 5,8 C 5,0 C 4,4 C 92 % 15 lf 1002,6 hPa 0,0 l/m 0 min 2 min 0 W/m 36,0 km/h (5 Bft) 97,87 %
01.05.2018 02:22 5,8 C 5,0 C 4,4 C 92 % 15 lf 1002,7 hPa 0,0 l/m 0 min 2 min 0 W/m 33,8 km/h (5 Bft) 100,00 %
01.05.2018 02:24 5,8 C 5,0 C 4,4 C 92 % 15 lf 1002,7 hPa 0,0 l/m 0 min 2 min 0 W/m 56,3 km/h (7 Bft) 97,87 %
01.05.2018 02:26 5,7 C 5,0 C 4,4 C 93 % 15 lf 1002,6 hPa 0,0 l/m 0 min 2 min 0 W/m 38,3 km/h (5 Bft) 100,00 %
01.05.2018 02:28 5,7 C 5,0 C 4,4 C 93 % 15 lf 1002,7 hPa 0,0 l/m 0 min 2 min 0 W/m 33,8 km/h (5 Bft) 97,83 %
01.05.2018 02:30 5,7 C 5,0 C 3,9 C 93 % 15 lf 1002,7 hPa 0,0 l/m 0 min 2 min 0 W/m 40,6 km/h (6 Bft) 100,00 %
01.05.2018 02:32 5,7 C 5,0 C 3,9 C 93 % 15 lf 1002,7 hPa 0,0 l/m 0 min 2 min 0 W/m 40,6 km/h (6 Bft) 100,00 %
01.05.2018 02:34 5,7 C 5,0 C 4,4 C 93 % 15 lf 1002,7 hPa 0,0 l/m 0 min 2 min 0 W/m 45,1 km/h (6 Bft) 97,87 %
01.05.2018 02:36 5,7 C 5,0 C 4,4 C 93 % 15 lf 1002,7 hPa 0,0 l/m 0 min 2 min 0 W/m 38,3 km/h (5 Bft) 97,87 %
01.05.2018 02:38 5,7 C 5,0 C 4,4 C 93 % 15 lf 1002,7 hPa 0,0 l/m 0 min 2 min 0 W/m 38,3 km/h (5 Bft) 100,00 %
01.05.2018 02:40 5,7 C 5,0 C 4,4 C 93 % 15 lf 1002,7 hPa 0,0 l/m 0 min 2 min 0 W/m 45,1 km/h (6 Bft) 95,74 %
01.05.2018 02:42 5,7 C 5,0 C 4,4 C 93 % 15 lf 1002,7 hPa 0,0 l/m 0 min 2 min 0 W/m 47,3 km/h (6 Bft) 97,87 %
01.05.2018 02:44 5,7 C 5,0 C 4,4 C 93 % 15 lf 1002,7 hPa 0,0 l/m 0 min 2 min 0 W/m 56,3 km/h (7 Bft) 97,37 %
01.05.2018 02:46 5,7 C 5,0 C 4,4 C 93 % 15 lf 1002,7 hPa 0,0 l/m 0 min 2 min 0 W/m 29,3 km/h (5 Bft) 97,87 %
01.05.2018 02:48 5,7 C 5,0 C 4,4 C 93 % 15 lf 1002,7 hPa 0,2 l/m 0 min 2 min 0 W/m 38,3 km/h (5 Bft) 95,74 %
01.05.2018 02:50 5,7 C 5,0 C 4,4 C 93 % 15 lf 1002,7 hPa 0,0 l/m 0 min 2 min 0 W/m 33,8 km/h (5 Bft) 97,92 %
01.05.2018 02:52 5,7 C 5,0 C 4,4 C 93 % 15 lf 1002,8 hPa 0,0 l/m 0 min 2 min 0 W/m 38,3 km/h (5 Bft) 97,87 %
01.05.2018 02:54 5,7 C 5,0 C 4,4 C 93 % 15 lf 1002,9 hPa 0,0 l/m 0 min 2 min 0 W/m 33,8 km/h (5 Bft) 95,74 %
01.05.2018 02:56 5,7 C 5,0 C 4,4 C 93 % 15 lf 1002,7 hPa 0,0 l/m 0 min 2 min 0 W/m 29,3 km/h (5 Bft) 97,87 %
01.05.2018 02:58 5,7 C 5,0 C 4,4 C 93 % 15 lf 1002,7 hPa 0,0 l/m 0 min 2 min 0 W/m 47,3 km/h (6 Bft) 97,87 %
01.05.2018 03:00 5,7 C 5,0 C 4,4 C 93 % 15 lf 1002,9 hPa 0,0 l/m 0 min 2 min 0 W/m 42,8 km/h (6 Bft) 95,74 %
01.05.2018 03:02 5,7 C 5,0 C 4,4 C 93 % 15 lf 1003,0 hPa 0,0 l/m 0 min 2 min 0 W/m 31,5 km/h (5 Bft) 95,65 %
01.05.2018 03:04 5,7 C 5,0 C 4,4 C 93 % 15 lf 1003,1 hPa 0,0 l/m 0 min 2 min 0 W/m 36,0 km/h (5 Bft) 95,74 %
01.05.2018 03:06 5,7 C 5,0 C 4,4 C 93 % 15 lf 1003,0 hPa 0,0 l/m 0 min 2 min 0 W/m 31,5 km/h (5 Bft) 97,87 %
01.05.2018 03:08 5,7 C 5,0 C 4,4 C 93 % 15 lf 1003,1 hPa 0,0 l/m 0 min 2 min 0 W/m 36,0 km/h (5 Bft) 95,74 %
01.05.2018 03:10 5,7 C 5,0 C 4,4 C 94 % 15 lf 1003,1 hPa 0,0 l/m 0 min 2 min 0 W/m 40,6 km/h (6 Bft) 97,87 %
01.05.2018 03:12 5,7 C 5,0 C 4,4 C 94 % 15 lf 1003,1 hPa 0,0 l/m 0 min 2 min 0 W/m 31,5 km/h (5 Bft) 95,74 %
01.05.2018 03:14 5,7 C 5,0 C 4,4 C 94 % 15 lf 1003,2 hPa 0,0 l/m 0 min 2 min 0 W/m 51,8 km/h (7 Bft) 97,83 %
01.05.2018 03:16 5,7 C 5,0 C 4,4 C 94 % 15 lf 1003,2 hPa 0,0 l/m 0 min 2 min 0 W/m 27,0 km/h (4 Bft) 97,87 %
01.05.2018 03:18 5,7 C 5,0 C 4,4 C 94 % 15 lf 1003,2 hPa 0,0 l/m 0 min 2 min 0 W/m 31,5 km/h (5 Bft) 97,87 %
01.05.2018 03:20 5,7 C 5,0 C 4,4 C 94 % 15 lf 1003,3 hPa 0,2 l/m 0 min 2 min 0 W/m 45,1 km/h (6 Bft) 95,74 %
01.05.2018 03:22 5,7 C 5,0 C 4,4 C 94 % 15 lf 1003,3 hPa 0,0 l/m 0 min 2 min 0 W/m 38,3 km/h (5 Bft) 95,74 %
01.05.2018 03:24 5,7 C 5,0 C 4,4 C 94 % 15 lf 1003,3 hPa 0,0 l/m 0 min 2 min 0 W/m 56,3 km/h (7 Bft) 95,74 %
01.05.2018 03:26 5,6 C 5,0 C 4,4 C 94 % 15 lf 1003,3 hPa 0,0 l/m 0 min 2 min 0 W/m 40,6 km/h (6 Bft) 93,48 %
01.05.2018 03:28 5,6 C 5,0 C 4,4 C 94 % 15 lf 1003,4 hPa 0,0 l/m 0 min 2 min 0 W/m 27,0 km/h (4 Bft) 93,62 %
01.05.2018 03:30 5,6 C 5,0 C 4,4 C 94 % 15 lf 1003,4 hPa 0,0 l/m 0 min 2 min 0 W/m 31,5 km/h (5 Bft) 93,62 %
01.05.2018 03:32 5,6 C 5,0 C 4,4 C 94 % 15 lf 1003,4 hPa 0,0 l/m 0 min 2 min 0 W/m 36,0 km/h (5 Bft) 93,62 %
01.05.2018 03:34 5,6 C 5,0 C 4,4 C 94 % 15 lf 1003,4 hPa 0,0 l/m 0 min 2 min 0 W/m 38,3 km/h (5 Bft) 93,62 %
01.05.2018 03:36 5,6 C 5,0 C 4,4 C 94 % 15 lf 1003,5 hPa 0,0 l/m 0 min 2 min 0 W/m 33,8 km/h (5 Bft) 91,30 %
01.05.2018 03:38 5,6 C 5,0 C 4,4 C 94 % 15 lf 1003,5 hPa 0,0 l/m 0 min 2 min 0 W/m 33,8 km/h (5 Bft) 93,62 %
01.05.2018 03:40 5,6 C 5,0 C 4,4 C 94 % 15 lf 1003,4 hPa 0,0 l/m 0 min 2 min 0 W/m 36,0 km/h (5 Bft) 91,49 %
01.05.2018 03:42 5,6 C 5,0 C 3,9 C 94 % 15 lf 1003,5 hPa 0,0 l/m 0 min 2 min 0 W/m 42,8 km/h (6 Bft) 95,74 %
01.05.2018 03:44 5,6 C 5,0 C 4,4 C 94 % 15 lf 1003,5 hPa 0,0 l/m 0 min 2 min 0 W/m 38,3 km/h (5 Bft) 93,62 %
01.05.2018 03:46 5,6 C 5,0 C 3,9 C 94 % 15 lf 1003,5 hPa 0,0 l/m 0 min 2 min 0 W/m 40,6 km/h (6 Bft) 93,62 %
01.05.2018 03:48 5,6 C 5,0 C 3,9 C 94 % 15 lf 1003,5 hPa 0,0 l/m 0 min 2 min 0 W/m 36,0 km/h (5 Bft) 91,49 %
01.05.2018 03:50 5,5 C 5,0 C 3,9 C 94 % 15 lf 1003,6 hPa 0,0 l/m 0 min 2 min 0 W/m 38,3 km/h (5 Bft) 91,30 %
01.05.2018 03:52 5,5 C 5,0 C 3,9 C 94 % 15 lf 1003,6 hPa 0,0 l/m 0 min 2 min 0 W/m 42,8 km/h (6 Bft) 91,49 %
01.05.2018 03:54 5,5 C 4,4 C 3,9 C 94 % 15 lf 1003,8 hPa 0,0 l/m 0 min 2 min 0 W/m 31,5 km/h (5 Bft) 93,62 %
01.05.2018 03:56 5,5 C 4,4 C 3,9 C 94 % 15 lf 1003,7 hPa 0,0 l/m 0 min 2 min 0 W/m 38,3 km/h (5 Bft) 93,62 %
01.05.2018 03:58 5,5 C 4,4 C 3,9 C 94 % 15 lf 1003,7 hPa 0,0 l/m 0 min 2 min 0 W/m 38,3 km/h (5 Bft) 91,49 %
01.05.2018 04:00 5,5 C 4,4 C 3,9 C 94 % 15 lf 1003,7 hPa 0,0 l/m 0 min 2 min 0 W/m 36,0 km/h (5 Bft) 86,96 %
01.05.2018 04:05 5,4 C 4,4 C 3,9 C 94 % 15 lf 1003,8 hPa 0,0 l/m 0 min 5 min 0 W/m 49,6 km/h (6 Bft) 97,06 %
01.05.2018 04:06 5,4 C 4,4 C 3,9 C 94 % 15 lf 1003,8 hPa 0,0 l/m 0 min 1 min 0 W/m 36,0 km/h (5 Bft) 100,00 %
01.05.2018 04:08 5,4 C 4,4 C 3,9 C 94 % 15 lf 1003,9 hPa 0,0 l/m 0 min 2 min 0 W/m 40,6 km/h (6 Bft) 93,62 %
01.05.2018 04:10 5,4 C 4,4 C 3,9 C 94 % 15 lf 1003,8 hPa 0,0 l/m 0 min 2 min 0 W/m 47,3 km/h (6 Bft) 97,87 %
01.05.2018 04:12 5,4 C 4,4 C 3,9 C 94 % 15 lf 1003,8 hPa 0,0 l/m 0 min 2 min 0 W/m 38,3 km/h (5 Bft) 95,65 %
01.05.2018 04:14 5,4 C 4,4 C 3,9 C 94 % 15 lf 1003,9 hPa 0,0 l/m 0 min 2 min 0 W/m 56,3 km/h (7 Bft) 95,74 %
01.05.2018 04:16 5,4 C 4,4 C 3,9 C 94 % 15 lf 1004,0 hPa 0,0 l/m 0 min 2 min 0 W/m 38,3 km/h (5 Bft) 95,83 %
01.05.2018 04:18 5,4 C 4,4 C 3,9 C 94 % 15 lf 1004,0 hPa 0,0 l/m 0 min 2 min 0 W/m 40,6 km/h (6 Bft) 97,87 %
01.05.2018 04:20 5,4 C 4,4 C 3,9 C 94 % 15 lf 1004,0 hPa 0,0 l/m 0 min 2 min 0 W/m 38,3 km/h (5 Bft) 97,87 %
01.05.2018 04:22 5,4 C 4,4 C 3,9 C 94 % 15 lf 1004,0 hPa 0,0 l/m 0 min 2 min 0 W/m 36,0 km/h (5 Bft) 97,87 %
01.05.2018 04:24 5,4 C 4,4 C 3,9 C 94 % 15 lf 1004,0 hPa 0,0 l/m 0 min 2 min 0 W/m 47,3 km/h (6 Bft) 97,83 %
01.05.2018 04:26 5,4 C 4,4 C 3,9 C 94 % 15 lf 1004,0 hPa 0,0 l/m 0 min 2 min 0 W/m 33,8 km/h (5 Bft) 97,87 %
01.05.2018 04:28 5,4 C 4,4 C 3,9 C 94 % 15 lf 1004,0 hPa 0,0 l/m 0 min 2 min 0 W/m 31,5 km/h (5 Bft) 93,62 %
01.05.2018 04:30 5,4 C 4,4 C 3,9 C 94 % 15 lf 1004,0 hPa 0,0 l/m 0 min 0 min 0 W/m 42,8 km/h (6 Bft) 97,87 %
01.05.2018 04:32 5,4 C 4,4 C 3,9 C 94 % 15 lf 1004,0 hPa 0,0 l/m 0 min 2 min 0 W/m 45,1 km/h (6 Bft) 97,87 %
01.05.2018 04:34 5,4 C 4,4 C 3,9 C 94 % 15 lf 1004,1 hPa 0,0 l/m 0 min 2 min 0 W/m 33,8 km/h (5 Bft) 97,83 %
01.05.2018 04:36 5,4 C 5,0 C 3,9 C 94 % 15 lf 1004,1 hPa 0,0 l/m 0 min 0 min 0 W/m 27,0 km/h (4 Bft) 100,00 %
01.05.2018 04:38 5,4 C 4,4 C 3,9 C 94 % 15 lf 1004,2 hPa 0,0 l/m 0 min 2 min 0 W/m 47,3 km/h (6 Bft) 97,87 %
01.05.2018 04:40 5,4 C 5,0 C 3,9 C 94 % 15 lf 1004,3 hPa 0,0 l/m 0 min 0 min 0 W/m 36,0 km/h (5 Bft) 100,00 %
01.05.2018 04:42 5,4 C 4,4 C 3,9 C 94 % 15 lf 1004,2 hPa 0,0 l/m 0 min 2 min 0 W/m 45,1 km/h (6 Bft) 100,00 %
01.05.2018 04:44 5,4 C 5,0 C 3,9 C 94 % 15 lf 1004,2 hPa 0,0 l/m 0 min 0 min 0 W/m 29,3 km/h (5 Bft) 97,52 %
01.05.2018 04:46 5,4 C 5,0 C 3,9 C 94 % 15 lf 1004,2 hPa 0,0 l/m 0 min 2 min 0 W/m 47,3 km/h (6 Bft) 100,00 %
01.05.2018 04:48 5,4 C 4,4 C 3,9 C 94 % 15 lf 1004,4 hPa 0,0 l/m 0 min 2 min 0 W/m 42,8 km/h (6 Bft) 100,00 %
01.05.2018 04:50 5,4 C 5,0 C 3,9 C 94 % 15 lf 1004,4 hPa 0,0 l/m 0 min 2 min 0 W/m 36,0 km/h (5 Bft) 100,00 %
01.05.2018 04:52 5,4 C 4,4 C 3,9 C 94 % 15 lf 1004,4 hPa 0,0 l/m 0 min 0 min 0 W/m 49,6 km/h (6 Bft) 100,00 %
01.05.2018 04:54 5,4 C 5,0 C 3,9 C 94 % 15 lf 1004,4 hPa 0,0 l/m 0 min 2 min 0 W/m 51,8 km/h (7 Bft) 97,96 %
01.05.2018 04:56 5,4 C 5,0 C 3,9 C 94 % 15 lf 1004,4 hPa 0,0 l/m 0 min 2 min 0 W/m 40,6 km/h (6 Bft) 100,00 %
01.05.2018 04:58 5,4 C 5,0 C 3,9 C 94 % 15 lf 1004,4 hPa 0,0 l/m 0 min 0 min 0 W/m 42,8 km/h (6 Bft) 100,00 %
01.05.2018 05:00 5,4 C 5,0 C 3,9 C 94 % 15 lf 1004,7 hPa 0,0 l/m 0 min 2 min 0 W/m 45,1 km/h (6 Bft) 97,87 %
01.05.2018 05:02 5,5 C 5,0 C 3,9 C 94 % 15 lf 1004,5 hPa 0,0 l/m 0 min 2 min 0 W/m 45,1 km/h (6 Bft) 97,87 %
01.05.2018 05:04 5,5 C 5,0 C 3,9 C 93 % 15 lf 1004,5 hPa 0,0 l/m 0 min 2 min 0 W/m 45,1 km/h (6 Bft) 100,00 %
01.05.2018 05:06 5,5 C 5,0 C 3,9 C 93 % 15 lf 1004,5 hPa 0,0 l/m 0 min 2 min 0 W/m 38,3 km/h (5 Bft) 97,92 %
01.05.2018 05:08 5,5 C 5,0 C 3,9 C 93 % 15 lf 1004,5 hPa 0,0 l/m 0 min 2 min 0 W/m 54,1 km/h (7 Bft) 100,00 %
01.05.2018 05:10 5,5 C 5,0 C 3,9 C 93 % 15 lf 1004,6 hPa 0,0 l/m 0 min 2 min 0 W/m 42,8 km/h (6 Bft) 100,00 %
01.05.2018 05:12 5,5 C 5,0 C 3,9 C 93 % 15 lf 1004,6 hPa 0,0 l/m 0 min 2 min 0 W/m 40,6 km/h (6 Bft) 100,00 %
01.05.2018 05:14 5,5 C 5,0 C 3,9 C 93 % 15 lf 1004,6 hPa 0,0 l/m 0 min 2 min 0 W/m 38,3 km/h (5 Bft) 97,92 %
01.05.2018 05:16 5,5 C 5,0 C 3,9 C 93 % 15 lf 1004,7 hPa 0,0 l/m 0 min 2 min 0 W/m 58,6 km/h (7 Bft) 100,00 %
01.05.2018 05:18 5,6 C 5,0 C 3,9 C 93 % 15 lf 1004,7 hPa 0,0 l/m 0 min 2 min 0 W/m 51,8 km/h (7 Bft) 100,00 %
01.05.2018 05:20 5,6 C 5,0 C 3,9 C 93 % 15 lf 1004,6 hPa 0,0 l/m 0 min 2 min 0 W/m 42,8 km/h (6 Bft) 100,00 %
01.05.2018 05:22 5,6 C 5,0 C 3,9 C 93 % 15 lf 1004,7 hPa 0,0 l/m 0 min 2 min 0 W/m 36,0 km/h (5 Bft) 97,37 %
01.05.2018 05:24 5,6 C 5,0 C 3,9 C 93 % 15 lf 1004,6 hPa 0,0 l/m 0 min 2 min 0 W/m 36,0 km/h (5 Bft) 100,00 %
01.05.2018 05:26 5,6 C 5,0 C 3,9 C 93 % 15 lf 1004,6 hPa 0,0 l/m 0 min 2 min 0 W/m 36,0 km/h (5 Bft) 97,87 %
01.05.2018 05:28 5,6 C 5,0 C 3,9 C 93 % 15 lf 1004,7 hPa 0,0 l/m 0 min 2 min 0 W/m 40,6 km/h (6 Bft) 97,87 %
01.05.2018 05:30 5,6 C 5,0 C 3,9 C 93 % 15 lf 1004,7 hPa 0,0 l/m 0 min 2 min 0 W/m 49,6 km/h (6 Bft) 100,00 %
01.05.2018 05:32 5,6 C 5,0 C 3,9 C 93 % 15 lf 1004,7 hPa 0,0 l/m 0 min 2 min 0 W/m 38,3 km/h (5 Bft) 95,24 %
01.05.2018 05:34 5,6 C 5,0 C 3,9 C 93 % 15 lf 1004,8 hPa 0,0 l/m 0 min 2 min 0 W/m 31,5 km/h (5 Bft) 95,74 %
01.05.2018 05:35 5,6 C 4,4 C 3,9 C 93 % 15 lf 1004,7 hPa 0,0 l/m 0 min 1 min 0 W/m 38,3 km/h (5 Bft) 98,25 %
01.05.2018 05:40 5,6 C 4,4 C 3,9 C 93 % 15 lf 1004,8 hPa 0,0 l/m 0 min 5 min 0 W/m 42,8 km/h (6 Bft) 96,97 %
01.05.2018 05:42 5,5 C 4,4 C 3,9 C 93 % 15 lf 1004,8 hPa 0,0 l/m 0 min 2 min 0 W/m 40,6 km/h (6 Bft) 97,62 %
01.05.2018 05:44 5,5 C 4,4 C 3,9 C 93 % 15 lf 1004,8 hPa 0,0 l/m 0 min 2 min 0 W/m 47,3 km/h (6 Bft) 95,65 %
01.05.2018 05:46 5,5 C 4,4 C 3,9 C 93 % 15 lf 1004,9 hPa 0,0 l/m 0 min 2 min 0 W/m 47,3 km/h (6 Bft) 97,87 %
01.05.2018 05:48 5,5 C 4,4 C 3,9 C 93 % 15 lf 1004,9 hPa 0,0 l/m 0 min 2 min 0 W/m 24,8 km/h (4 Bft) 97,87 %
01.05.2018 05:50 5,5 C 4,4 C 3,9 C 93 % 15 lf 1004,9 hPa 0,0 l/m 0 min 2 min 0 W/m 38,3 km/h (5 Bft) 95,74 %
01.05.2018 05:52 5,5 C 4,4 C 3,9 C 93 % 15 lf 1004,9 hPa 0,0 l/m 0 min 2 min 0 W/m 49,6 km/h (6 Bft) 97,67 %
01.05.2018 05:54 5,5 C 4,4 C 3,9 C 93 % 15 lf 1004,9 hPa 0,0 l/m 0 min 2 min 0 W/m 33,8 km/h (5 Bft) 98,00 %
01.05.2018 05:56 5,5 C 4,4 C 3,9 C 93 % 15 lf 1004,8 hPa 0,0 l/m 0 min 2 min 0 W/m 24,8 km/h (4 Bft) 95,65 %
01.05.2018 05:58 5,5 C 4,4 C 3,9 C 93 % 15 lf 1004,9 hPa 0,0 l/m 0 min 2 min 0 W/m 27,0 km/h (4 Bft) 95,74 %
01.05.2018 06:00 5,5 C 5,0 C 3,9 C 92 % 15 lf 1004,9 hPa 0,0 l/m 0 min 2 min 0 W/m 47,3 km/h (6 Bft) 95,74 %
01.05.2018 06:02 5,5 C 5,0 C 3,9 C 92 % 15 lf 1004,8 hPa 0,0 l/m 0 min 2 min 0 W/m 29,3 km/h (5 Bft) 95,74 %
01.05.2018 06:04 5,5 C 5,0 C 3,9 C 92 % 15 lf 1004,9 hPa 0,0 l/m 0 min 2 min 0 W/m 31,5 km/h (5 Bft) 93,62 %
01.05.2018 06:08 5,5 C 5,0 C 3,9 C 93 % 15 lf 1004,9 hPa 0,0 l/m 0 min 4 min 0 W/m 40,6 km/h (6 Bft) 96,81 %
01.05.2018 06:10 5,5 C 5,0 C 3,9 C 93 % 15 lf 1005,0 hPa 0,0 l/m 0 min 2 min 0 W/m 33,8 km/h (5 Bft) 95,74 %
01.05.2018 06:12 5,5 C 5,0 C 3,9 C 93 % 15 lf 1005,0 hPa 0,0 l/m 0 min 2 min 0 W/m 40,6 km/h (6 Bft) 95,74 %
01.05.2018 06:14 5,5 C 5,0 C 3,9 C 93 % 15 lf 1005,0 hPa 0,0 l/m 0 min 2 min 0 W/m 22,5 km/h (4 Bft) 97,87 %
01.05.2018 06:16 5,6 C 5,0 C 3,9 C 93 % 15 lf 1005,1 hPa 0,0 l/m 0 min 2 min 0 W/m 36,0 km/h (5 Bft) 97,87 %
01.05.2018 06:18 5,6 C 5,0 C 3,9 C 93 % 15 lf 1005,2 hPa 0,0 l/m 0 min 2 min 2 W/m 33,8 km/h (5 Bft) 97,83 %
01.05.2018 06:20 5,6 C 5,0 C 3,9 C 93 % 15 lf 1005,1 hPa 0,0 l/m 0 min 2 min 5 W/m 38,3 km/h (5 Bft) 95,74 %
01.05.2018 06:22 5,6 C 5,0 C 3,9 C 93 % 15 lf 1005,1 hPa 0,0 l/m 0 min 2 min 2 W/m 38,3 km/h (5 Bft) 95,74 %
01.05.2018 06:24 5,6 C 5,0 C 3,9 C 93 % 15 lf 1005,2 hPa 0,0 l/m 0 min 2 min 0 W/m 40,6 km/h (6 Bft) 92,00 %
01.05.2018 06:26 5,6 C 5,0 C 3,9 C 93 % 15 lf 1005,2 hPa 0,0 l/m 0 min 2 min 0 W/m 36,0 km/h (5 Bft) 95,74 %
01.05.2018 06:28 5,6 C 5,6 C 3,9 C 92 % 15 lf 1005,2 hPa 0,0 l/m 0 min 2 min 0 W/m 38,3 km/h (5 Bft) 93,62 %
01.05.2018 06:30 5,7 C 5,6 C 3,9 C 92 % 15 lf 1005,4 hPa 0,0 l/m 0 min 2 min 2 W/m 38,3 km/h (5 Bft) 95,65 %
01.05.2018 06:32 5,7 C 5,6 C 3,9 C 92 % 15 lf 1005,5 hPa 0,0 l/m 0 min 2 min 5 W/m 38,3 km/h (5 Bft) 93,62 %
01.05.2018 06:34 5,7 C 5,6 C 3,9 C 92 % 15 lf 1005,4 hPa 0,0 l/m 0 min 2 min 6 W/m 38,3 km/h (5 Bft) 95,74 %
01.05.2018 06:36 5,7 C 5,6 C 3,9 C 92 % 15 lf 1005,5 hPa 0,0 l/m 0 min 2 min 8 W/m 38,3 km/h (5 Bft) 91,49 %
01.05.2018 06:38 5,7 C 5,6 C 3,9 C 92 % 15 lf 1005,6 hPa 0,0 l/m 0 min 2 min 9 W/m 42,8 km/h (6 Bft) 93,62 %
01.05.2018 06:40 5,7 C 5,6 C 4,4 C 92 % 15 lf 1005,5 hPa 0,0 l/m 0 min 2 min 11 W/m 47,3 km/h (6 Bft) 93,62 %
01.05.2018 06:42 5,7 C 5,6 C 3,9 C 92 % 15 lf 1005,6 hPa 0,0 l/m 0 min 2 min 11 W/m 36,0 km/h (5 Bft) 91,30 %
01.05.2018 06:44 5,7 C 5,6 C 4,4 C 92 % 15 lf 1005,7 hPa 0,0 l/m 0 min 2 min 11 W/m 36,0 km/h (5 Bft) 89,36 %
01.05.2018 06:46 5,8 C 5,6 C 4,4 C 92 % 15 lf 1005,6 hPa 0,0 l/m 0 min 2 min 12 W/m 40,6 km/h (6 Bft) 91,49 %
01.05.2018 06:48 5,8 C 5,6 C 4,4 C 91 % 14 lf 1005,7 hPa 0,0 l/m 0 min 2 min 12 W/m 33,8 km/h (5 Bft) 93,62 %
01.05.2018 06:50 5,8 C 5,6 C 4,4 C 91 % 14 lf 1005,7 hPa 0,0 l/m 0 min 2 min 13 W/m 33,8 km/h (5 Bft) 91,49 %
01.05.2018 06:52 5,8 C 5,6 C 4,4 C 91 % 13 lf 1005,7 hPa 0,0 l/m 0 min 2 min 16 W/m 38,3 km/h (5 Bft) 95,65 %
01.05.2018 06:54 5,8 C 6,1 C 4,4 C 91 % 11 lf 1005,7 hPa 0,0 l/m 0 min 2 min 18 W/m 45,1 km/h (6 Bft) 94,00 %
01.05.2018 06:56 5,8 C 6,1 C 4,4 C 91 % 9 lf 1005,7 hPa 0,0 l/m 0 min 2 min 19 W/m 56,3 km/h (7 Bft) 95,74 %
01.05.2018 06:58 5,9 C 6,1 C 3,9 C 91 % 5 lf 1005,9 hPa 0,0 l/m 0 min 2 min 19 W/m 49,6 km/h (6 Bft) 95,74 %
01.05.2018 07:00 5,9 C 6,1 C 3,9 C 90 % 3 lf 1006,1 hPa 0,0 l/m 0 min 2 min 22 W/m 58,6 km/h (7 Bft) 91,49 %
01.05.2018 07:02 5,9 C 6,1 C 3,9 C 90 % 1 lf 1005,9 hPa 0,0 l/m 0 min 2 min 23 W/m 54,1 km/h (7 Bft) 95,65 %
01.05.2018 07:04 5,9 C 6,1 C 3,9 C 90 % 0 lf 1005,9 hPa 0,0 l/m 0 min 2 min 20 W/m 40,6 km/h (6 Bft) 95,74 %
01.05.2018 07:08 5,9 C 6,1 C 4,4 C 89 % 0 lf 1006,1 hPa 0,0 l/m 0 min 0 min 24 W/m 27,0 km/h (4 Bft) 95,74 %
01.05.2018 07:10 6,0 C 6,1 C 4,4 C 89 % 0 lf 1006,1 hPa 0,0 l/m 0 min 0 min 23 W/m 24,8 km/h (4 Bft) 95,74 %
01.05.2018 07:12 6,0 C 6,1 C 4,4 C 89 % 0 lf 1006,1 hPa 0,0 l/m 0 min 0 min 21 W/m 54,1 km/h (7 Bft) 95,74 %
01.05.2018 07:14 6,0 C 6,1 C 4,4 C 89 % 0 lf 1006,2 hPa 0,0 l/m 0 min 0 min 22 W/m 47,3 km/h (6 Bft) 95,65 %
01.05.2018 07:16 6,0 C 6,1 C 4,4 C 89 % 0 lf 1006,1 hPa 0,0 l/m 0 min 0 min 28 W/m 31,5 km/h (5 Bft) 91,49 %
01.05.2018 07:18 6,0 C 6,1 C 3,9 C 89 % 0 lf 1006,3 hPa 0,0 l/m 0 min 0 min 30 W/m 31,5 km/h (5 Bft) 95,74 %
01.05.2018 07:20 6,0 C 6,1 C 3,9 C 89 % 0 lf 1006,2 hPa 0,0 l/m 0 min 0 min 33 W/m 47,3 km/h (6 Bft) 93,62 %
01.05.2018 07:22 6,0 C 6,1 C 3,9 C 89 % 0 lf 1006,3 hPa 0,0 l/m 0 min 2 min 32 W/m 31,5 km/h (5 Bft) 92,11 %
01.05.2018 07:24 6,0 C 6,1 C 3,9 C 88 % 1 lf 1006,3 hPa 0,0 l/m 0 min 0 min 27 W/m 38,3 km/h (5 Bft) 97,92 %
01.05.2018 07:26 6,0 C 6,1 C 3,9 C 88 % 1 lf 1006,4 hPa 0,0 l/m 0 min 0 min 31 W/m 42,8 km/h (6 Bft) 100,00 %
01.05.2018 07:28 6,0 C 6,1 C 4,4 C 88 % 1 lf 1006,4 hPa 0,0 l/m 0 min 0 min 44 W/m 31,5 km/h (5 Bft) 97,87 %
01.05.2018 07:30 6,1 C 6,1 C 4,4 C 88 % 0 lf 1006,4 hPa 0,0 l/m 0 min 0 min 62 W/m 36,0 km/h (5 Bft) 97,83 %
01.05.2018 07:32 6,1 C 6,1 C 4,4 C 88 % 0 lf 1006,5 hPa 0,0 l/m 0 min 0 min 59 W/m 51,8 km/h (7 Bft) 95,74 %
01.05.2018 07:34 6,0 C 6,1 C 4,4 C 88 % 0 lf 1006,5 hPa 0,0 l/m 0 min 0 min 51 W/m 40,6 km/h (6 Bft) 93,62 %
01.05.2018 07:36 6,1 C 6,1 C 4,4 C 88 % 0 lf 1006,6 hPa 0,0 l/m 0 min 0 min 51 W/m 40,6 km/h (6 Bft) 95,74 %
01.05.2018 07:38 6,1 C 6,1 C 4,4 C 88 % 0 lf 1006,6 hPa 0,0 l/m 0 min 0 min 62 W/m 56,3 km/h (7 Bft) 97,87 %
01.05.2018 07:40 6,1 C 6,1 C 4,4 C 88 % 0 lf 1006,7 hPa 0,0 l/m 0 min 0 min 63 W/m 40,6 km/h (6 Bft) 95,74 %
01.05.2018 07:42 6,1 C 6,1 C 4,4 C 88 % 0 lf 1006,6 hPa 0,0 l/m 0 min 0 min 66 W/m 47,3 km/h (6 Bft) 97,83 %
01.05.2018 07:44 6,1 C 6,1 C 4,4 C 88 % 0 lf 1006,8 hPa 0,0 l/m 0 min 0 min 70 W/m 47,3 km/h (6 Bft) 97,87 %
01.05.2018 07:46 6,1 C 6,1 C 4,4 C 88 % 0 lf 1006,7 hPa 0,0 l/m 0 min 0 min 85 W/m 45,1 km/h (6 Bft) 95,74 %
01.05.2018 07:48 6,1 C 6,1 C 4,4 C 88 % 0 lf 1006,7 hPa 0,0 l/m 0 min 0 min 94 W/m 40,6 km/h (6 Bft) 97,87 %
01.05.2018 07:50 6,1 C 6,7 C 4,4 C 88 % 0 lf 1006,9 hPa 0,0 l/m 0 min 0 min 93 W/m 45,1 km/h (6 Bft) 95,74 %
01.05.2018 07:52 6,1 C 6,7 C 4,4 C 87 % 0 lf 1006,9 hPa 0,0 l/m 0 min 0 min 91 W/m 47,3 km/h (6 Bft) 97,87 %
01.05.2018 07:54 6,1 C 6,7 C 4,4 C 87 % 0 lf 1006,9 hPa 0,0 l/m 0 min 0 min 92 W/m 42,8 km/h (6 Bft) 97,83 %
01.05.2018 07:56 6,2 C 6,7 C 4,4 C 88 % 0 lf 1006,9 hPa 0,0 l/m 0 min 0 min 95 W/m 45,1 km/h (6 Bft) 97,87 %
01.05.2018 07:58 6,2 C 6,7 C 4,4 C 88 % 0 lf 1006,9 hPa 0,0 l/m 0 min 0 min 92 W/m 45,1 km/h (6 Bft) 97,87 %
01.05.2018 08:00 6,2 C 6,7 C 4,4 C 87 % 0 lf 1007,0 hPa 0,0 l/m 0 min 0 min 92 W/m 40,6 km/h (6 Bft) 97,87 %
01.05.2018 08:02 6,2 C 6,7 C 4,4 C 87 % 0 lf 1007,0 hPa 0,0 l/m 0 min 0 min 96 W/m 42,8 km/h (6 Bft) 95,74 %
01.05.2018 08:04 6,2 C 6,7 C 4,4 C 87 % 0 lf 1007,0 hPa 0,0 l/m 0 min 0 min 100 W/m 45,1 km/h (6 Bft) 100,00 %
01.05.2018 08:06 6,2 C 6,7 C 4,4 C 87 % 0 lf 1007,1 hPa 0,0 l/m 0 min 0 min 99 W/m 40,6 km/h (6 Bft) 100,00 %
01.05.2018 08:08 6,2 C 6,7 C 4,4 C 87 % 0 lf 1007,1 hPa 0,0 l/m 0 min 0 min 97 W/m 51,8 km/h (7 Bft) 97,87 %
01.05.2018 08:10 6,3 C 6,7 C 5,0 C 87 % 0 lf 1007,1 hPa 0,0 l/m 0 min 0 min 97 W/m 45,1 km/h (6 Bft) 100,00 %
01.05.2018 08:12 6,3 C 6,7 C 5,0 C 87 % 0 lf 1007,2 hPa 0,0 l/m 0 min 0 min 94 W/m 38,3 km/h (5 Bft) 100,00 %
01.05.2018 08:14 6,3 C 6,7 C 5,0 C 87 % 0 lf 1007,3 hPa 0,0 l/m 0 min 0 min 90 W/m 40,6 km/h (6 Bft) 100,00 %
01.05.2018 08:16 6,3 C 6,7 C 5,0 C 87 % 0 lf 1007,3 hPa 0,0 l/m 0 min 0 min 84 W/m 29,3 km/h (5 Bft) 97,83 %
01.05.2018 08:18 6,3 C 6,7 C 5,0 C 87 % 0 lf 1007,3 hPa 0,0 l/m 0 min 0 min 90 W/m 40,6 km/h (6 Bft) 100,00 %
01.05.2018 08:20 6,3 C 6,7 C 5,0 C 87 % 0 lf 1007,5 hPa 0,0 l/m 0 min 0 min 90 W/m 45,1 km/h (6 Bft) 97,87 %
01.05.2018 08:22 6,3 C 6,7 C 5,0 C 86 % 0 lf 1007,5 hPa 0,0 l/m 0 min 0 min 95 W/m 33,8 km/h (5 Bft) 97,87 %
01.05.2018 08:24 6,3 C 6,7 C 5,0 C 86 % 0 lf 1007,5 hPa 0,0 l/m 0 min 0 min 103 W/m 47,3 km/h (6 Bft) 95,74 %
01.05.2018 08:26 6,3 C 6,7 C 5,0 C 86 % 0 lf 1007,4 hPa 0,0 l/m 0 min 0 min 116 W/m 45,1 km/h (6 Bft) 100,00 %
01.05.2018 08:28 6,3 C 7,2 C 5,0 C 86 % 0 lf 1007,4 hPa 0,0 l/m 2 min 0 min 187 W/m 42,8 km/h (6 Bft) 97,83 %
01.05.2018 08:30 6,3 C 7,2 C 5,0 C 86 % 0 lf 1007,5 hPa 0,0 l/m 2 min 0 min 235 W/m 42,8 km/h (6 Bft) 100,00 %
01.05.2018 08:32 6,4 C 7,2 C 5,6 C 86 % 0 lf 1007,5 hPa 0,0 l/m 2 min 0 min 199 W/m 36,0 km/h (5 Bft) 97,87 %
01.05.2018 08:34 6,4 C 7,2 C 5,6 C 86 % 0 lf 1007,5 hPa 0,0 l/m 0 min 0 min 176 W/m 42,8 km/h (6 Bft) 100,00 %
01.05.2018 08:36 6,4 C 7,8 C 5,6 C 86 % 0 lf 1007,7 hPa 0,0 l/m 2 min 0 min 196 W/m 49,6 km/h (6 Bft) 100,00 %
01.05.2018 08:38 6,4 C 7,8 C 5,6 C 86 % 0 lf 1007,6 hPa 0,0 l/m 2 min 0 min 254 W/m 42,8 km/h (6 Bft) 100,00 %
01.05.2018 08:40 6,5 C 7,8 C 5,6 C 86 % 0 lf 1007,6 hPa 0,0 l/m 2 min 0 min 198 W/m 47,3 km/h (6 Bft) 97,83 %
01.05.2018 08:42 6,5 C 7,8 C 5,6 C 85 % 0 lf 1007,7 hPa 0,0 l/m 0 min 0 min 164 W/m 40,6 km/h (6 Bft) 100,00 %
01.05.2018 08:44 6,6 C 7,8 C 5,6 C 85 % 0 lf 1007,6 hPa 0,0 l/m 0 min 0 min 169 W/m 45,1 km/h (6 Bft) 97,87 %
01.05.2018 08:46 6,6 C 7,8 C 5,6 C 85 % 0 lf 1007,7 hPa 0,0 l/m 0 min 0 min 174 W/m 36,0 km/h (5 Bft) 100,00 %
01.05.2018 08:48 6,6 C 7,8 C 5,6 C 85 % 0 lf 1007,6 hPa 0,0 l/m 0 min 0 min 181 W/m 49,6 km/h (6 Bft) 97,87 %
01.05.2018 08:50 6,6 C 7,8 C 5,6 C 84 % 0 lf 1007,7 hPa 0,0 l/m 0 min 0 min 187 W/m 40,6 km/h (6 Bft) 97,87 %
01.05.2018 08:52 6,7 C 7,8 C 5,6 C 84 % 0 lf 1007,7 hPa 0,0 l/m 0 min 0 min 183 W/m 47,3 km/h (6 Bft) 97,83 %
01.05.2018 08:54 6,7 C 7,8 C 5,6 C 84 % 0 lf 1007,8 hPa 0,0 l/m 0 min 0 min 181 W/m 49,6 km/h (6 Bft) 97,87 %
01.05.2018 08:56 6,7 C 7,8 C 5,6 C 84 % 0 lf 1007,8 hPa 0,0 l/m 0 min 0 min 172 W/m 40,6 km/h (6 Bft) 97,87 %
01.05.2018 08:58 6,7 C 7,8 C 5,6 C 84 % 0 lf 1007,9 hPa 0,0 l/m 0 min 0 min 165 W/m 40,6 km/h (6 Bft) 97,87 %
01.05.2018 09:00 6,7 C 7,8 C 5,6 C 84 % 0 lf 1007,8 hPa 0,0 l/m 0 min 0 min 170 W/m 49,6 km/h (6 Bft) 93,62 %
01.05.2018 09:02 6,7 C 7,8 C 5,6 C 84 % 0 lf 1007,9 hPa 0,0 l/m 0 min 0 min 181 W/m 54,1 km/h (7 Bft) 95,83 %
01.05.2018 09:04 6,7 C 7,8 C 6,1 C 83 % 0 lf 1007,9 hPa 0,0 l/m 0 min 0 min 205 W/m 38,3 km/h (5 Bft) 95,65 %
01.05.2018 09:06 6,8 C 8,3 C 6,1 C 83 % 0 lf 1008,0 hPa 0,0 l/m 2 min 0 min 223 W/m 33,8 km/h (5 Bft) 97,87 %
01.05.2018 09:08 6,8 C 8,3 C 6,1 C 83 % 0 lf 1008,0 hPa 0,0 l/m 2 min 0 min 232 W/m 45,1 km/h (6 Bft) 97,87 %
01.05.2018 09:10 6,8 C 8,3 C 6,7 C 83 % 0 lf 1008,1 hPa 0,0 l/m 2 min 0 min 250 W/m 38,3 km/h (5 Bft) 97,87 %
01.05.2018 09:12 6,9 C 8,3 C 6,7 C 83 % 0 lf 1008,0 hPa 0,0 l/m 2 min 0 min 243 W/m 54,1 km/h (7 Bft) 95,74 %
01.05.2018 09:14 6,9 C 8,3 C 6,7 C 82 % 0 lf 1008,0 hPa 0,0 l/m 2 min 0 min 244 W/m 42,8 km/h (6 Bft) 95,74 %
01.05.2018 09:16 7,0 C 8,9 C 6,7 C 82 % 0 lf 1008,1 hPa 0,0 l/m 2 min 0 min 252 W/m 40,6 km/h (6 Bft) 93,48 %
01.05.2018 09:18 7,1 C 8,9 C 7,2 C 83 % 0 lf 1008,3 hPa 0,0 l/m 2 min 0 min 256 W/m 36,0 km/h (5 Bft) 97,87 %
01.05.2018 09:20 7,1 C 8,9 C 7,2 C 82 % 0 lf 1008,2 hPa 0,0 l/m 2 min 0 min 257 W/m 31,5 km/h (5 Bft) 93,62 %
01.05.2018 09:22 7,1 C 8,9 C 7,2 C 82 % 0 lf 1008,3 hPa 0,0 l/m 2 min 0 min 254 W/m 29,3 km/h (5 Bft) 98,11 %
01.05.2018 09:24 7,2 C 8,9 C 7,2 C 82 % 0 lf 1008,3 hPa 0,0 l/m 2 min 0 min 252 W/m 36,0 km/h (5 Bft) 95,74 %
01.05.2018 09:26 7,2 C 8,9 C 7,2 C 82 % 0 lf 1008,4 hPa 0,0 l/m 2 min 0 min 254 W/m 40,6 km/h (6 Bft) 97,87 %
01.05.2018 09:28 7,3 C 8,9 C 7,8 C 82 % 0 lf 1008,3 hPa 0,0 l/m 2 min 0 min 274 W/m 47,3 km/h (6 Bft) 97,87 %
01.05.2018 09:30 7,3 C 9,4 C 7,8 C 81 % 0 lf 1008,3 hPa 0,0 l/m 2 min 0 min 308 W/m 42,8 km/h (6 Bft) 97,87 %
01.05.2018 09:32 7,3 C 9,4 C 7,8 C 81 % 0 lf 1008,4 hPa 0,0 l/m 2 min 0 min 357 W/m 49,6 km/h (6 Bft) 95,12 %
01.05.2018 09:34 7,4 C 10,0 C 7,8 C 80 % 0 lf 1008,3 hPa 0,0 l/m 2 min 0 min 342 W/m 38,3 km/h (5 Bft) 95,74 %
01.05.2018 09:36 7,5 C 10,0 C 8,3 C 80 % 0 lf 1008,4 hPa 0,0 l/m 2 min 0 min 332 W/m 38,3 km/h (5 Bft) 95,74 %
01.05.2018 09:38 7,6 C 10,0 C 8,3 C 80 % 0 lf 1008,5 hPa 0,0 l/m 2 min 0 min 319 W/m 29,3 km/h (5 Bft) 91,30 %
01.05.2018 09:40 7,6 C 10,0 C 8,3 C 80 % 0 lf 1008,5 hPa 0,0 l/m 2 min 0 min 303 W/m 45,1 km/h (6 Bft) 93,62 %
01.05.2018 09:42 7,7 C 10,0 C 8,3 C 79 % 0 lf 1008,4 hPa 0,0 l/m 2 min 0 min 290 W/m 36,0 km/h (5 Bft) 93,62 %
01.05.2018 09:44 7,7 C 10,0 C 8,3 C 79 % 0 lf 1008,6 hPa 0,0 l/m 2 min 0 min 298 W/m 38,3 km/h (5 Bft) 95,74 %
01.05.2018 09:46 7,8 C 10,0 C 8,3 C 79 % 0 lf 1008,5 hPa 0,0 l/m 2 min 0 min 307 W/m 45,1 km/h (6 Bft) 96,15 %
01.05.2018 09:48 7,8 C 10,0 C 8,3 C 78 % 0 lf 1008,7 hPa 0,0 l/m 2 min 0 min 316 W/m 54,1 km/h (7 Bft) 92,86 %
01.05.2018 09:50 7,8 C 10,0 C 8,3 C 77 % 0 lf 1008,7 hPa 0,0 l/m 2 min 0 min 327 W/m 38,3 km/h (5 Bft) 91,30 %
01.05.2018 09:52 7,9 C 10,6 C 8,9 C 78 % 0 lf 1008,7 hPa 0,0 l/m 2 min 0 min 351 W/m 47,3 km/h (6 Bft) 93,62 %
01.05.2018 09:54 7,9 C 10,6 C 8,9 C 78 % 0 lf 1008,8 hPa 0,0 l/m 2 min 0 min 382 W/m 54,1 km/h (7 Bft) 91,49 %
01.05.2018 09:56 8,0 C 11,1 C 8,9 C 78 % 0 lf 1008,7 hPa 0,0 l/m 2 min 0 min 407 W/m 40,6 km/h (6 Bft) 95,74 %
01.05.2018 09:58 8,1 C 11,7 C 9,4 C 78 % 0 lf 1008,9 hPa 0,0 l/m 2 min 0 min 415 W/m 24,8 km/h (4 Bft) 93,62 %
01.05.2018 10:00 8,2 C 12,2 C 9,4 C 78 % 0 lf 1008,7 hPa 0,0 l/m 2 min 0 min 387 W/m 31,5 km/h (5 Bft) 91,30 %
01.05.2018 10:02 8,2 C 12,2 C 9,4 C 78 % 0 lf 1008,8 hPa 0,0 l/m 2 min 0 min 363 W/m 31,5 km/h (5 Bft) 93,75 %
01.05.2018 10:04 8,3 C 11,7 C 10,0 C 78 % 0 lf 1008,9 hPa 0,0 l/m 2 min 0 min 420 W/m 33,8 km/h (5 Bft) 93,62 %
01.05.2018 10:06 8,3 C 12,8 C 10,6 C 77 % 0 lf 1009,0 hPa 0,0 l/m 2 min 0 min 484 W/m 49,6 km/h (6 Bft) 91,49 %
01.05.2018 10:08 8,4 C 12,8 C 10,6 C 77 % 0 lf 1009,0 hPa 0,0 l/m 2 min 0 min 537 W/m 51,8 km/h (7 Bft) 89,36 %
01.05.2018 10:10 8,5 C 12,2 C 10,0 C 76 % 0 lf 1009,1 hPa 0,0 l/m 2 min 0 min 422 W/m 45,1 km/h (6 Bft) 89,36 %
01.05.2018 10:12 8,6 C 11,7 C 10,0 C 76 % 0 lf 1009,1 hPa 0,0 l/m 2 min 0 min 345 W/m 36,0 km/h (5 Bft) 95,65 %
01.05.2018 10:14 8,6 C 11,1 C 9,4 C 76 % 0 lf 1009,1 hPa 0,0 l/m 2 min 0 min 315 W/m 40,6 km/h (6 Bft) 93,62 %
01.05.2018 10:16 8,6 C 11,7 C 10,0 C 76 % 0 lf 1009,1 hPa 0,0 l/m 2 min 0 min 302 W/m 42,8 km/h (6 Bft) 93,62 %
01.05.2018 10:18 8,7 C 13,9 C 11,7 C 75 % 0 lf 1009,1 hPa 0,0 l/m 2 min 0 min 509 W/m 40,6 km/h (6 Bft) 95,74 %
01.05.2018 10:20 8,8 C 15,0 C 13,3 C 76 % 0 lf 1009,1 hPa 0,0 l/m 2 min 0 min 814 W/m 42,8 km/h (6 Bft) 95,74 %
01.05.2018 10:22 8,9 C 15,6 C 13,3 C 75 % 0 lf 1009,1 hPa 0,0 l/m 2 min 0 min 786 W/m 40,6 km/h (6 Bft) 91,49 %
01.05.2018 10:24 9,1 C 15,0 C 13,3 C 75 % 0 lf 1009,2 hPa 0,0 l/m 2 min 0 min 638 W/m 38,3 km/h (5 Bft) 93,48 %
01.05.2018 10:26 9,2 C 15,0 C 13,3 C 74 % 0 lf 1009,0 hPa 0,0 l/m 2 min 0 min 758 W/m 49,6 km/h (6 Bft) 93,62 %
01.05.2018 10:28 9,3 C 15,0 C 12,8 C 74 % 0 lf 1009,1 hPa 0,0 l/m 2 min 0 min 812 W/m 47,3 km/h (6 Bft) 95,74 %
01.05.2018 10:30 9,4 C 14,4 C 13,3 C 74 % 0 lf 1009,1 hPa 0,0 l/m 2 min 0 min 751 W/m 42,8 km/h (6 Bft) 97,87 %
01.05.2018 10:32 9,4 C 13,9 C 12,2 C 73 % 0 lf 1009,1 hPa 0,0 l/m 2 min 0 min 595 W/m 47,3 km/h (6 Bft) 97,92 %
01.05.2018 10:34 9,4 C 12,8 C 11,1 C 72 % 0 lf 1009,3 hPa 0,0 l/m 2 min 0 min 477 W/m 51,8 km/h (7 Bft) 97,87 %
01.05.2018 10:36 9,4 C 12,2 C 10,6 C 71 % 0 lf 1009,2 hPa 0,0 l/m 2 min 0 min 446 W/m 54,1 km/h (7 Bft) 95,65 %
01.05.2018 10:38 9,3 C 12,2 C 10,6 C 71 % 0 lf 1009,2 hPa 0,0 l/m 2 min 0 min 447 W/m 51,8 km/h (7 Bft) 97,87 %
01.05.2018 10:40 9,3 C 12,2 C 10,6 C 71 % 0 lf 1009,1 hPa 0,0 l/m 2 min 0 min 477 W/m 58,6 km/h (7 Bft) 95,74 %
01.05.2018 10:42 9,3 C 11,7 C 10,6 C 72 % 0 lf 1009,0 hPa 0,0 l/m 2 min 0 min 434 W/m 56,3 km/h (7 Bft) 91,49 %
01.05.2018 10:44 9,3 C 12,2 C 11,1 C 72 % 0 lf 1009,0 hPa 0,0 l/m 2 min 0 min 446 W/m 42,8 km/h (6 Bft) 100,00 %
01.05.2018 10:46 9,3 C 12,2 C 10,6 C 72 % 0 lf 1009,1 hPa 0,0 l/m 2 min 0 min 428 W/m 42,8 km/h (6 Bft) 95,83 %
01.05.2018 10:48 9,3 C 11,7 C 10,6 C 72 % 0 lf 1009,4 hPa 0,0 l/m 2 min 0 min 360 W/m 49,6 km/h (6 Bft) 100,00 %
01.05.2018 10:50 9,2 C 12,2 C 11,1 C 71 % 0 lf 1009,2 hPa 0,0 l/m 2 min 0 min 330 W/m 47,3 km/h (6 Bft) 100,00 %
01.05.2018 10:52 9,3 C 13,3 C 11,7 C 72 % 0 lf 1009,4 hPa 0,0 l/m 2 min 0 min 486 W/m 42,8 km/h (6 Bft) 100,00 %
01.05.2018 10:54 9,4 C 13,9 C 12,8 C 73 % 0 lf 1009,4 hPa 0,0 l/m 2 min 0 min 627 W/m 31,5 km/h (5 Bft) 97,87 %
01.05.2018 10:56 9,5 C 15,0 C 13,3 C 73 % 0 lf 1009,4 hPa 0,0 l/m 2 min 0 min 700 W/m 31,5 km/h (5 Bft) 95,74 %
01.05.2018 10:58 9,6 C 14,4 C 13,3 C 72 % 0 lf 1009,5 hPa 0,0 l/m 2 min 0 min 685 W/m 49,6 km/h (6 Bft) 97,83 %
01.05.2018 11:00 9,7 C 15,0 C 13,3 C 72 % 0 lf 1009,5 hPa 0,0 l/m 2 min 0 min 700 W/m 42,8 km/h (6 Bft) 100,00 %
01.05.2018 11:02 9,9 C 14,4 C 13,3 C 71 % 0 lf 1009,4 hPa 0,0 l/m 2 min 0 min 584 W/m 49,6 km/h (6 Bft) 97,92 %
01.05.2018 11:04 9,9 C 13,9 C 12,8 C 71 % 0 lf 1009,4 hPa 0,0 l/m 2 min 0 min 517 W/m 42,8 km/h (6 Bft) 97,87 %
01.05.2018 11:06 10,0 C 13,3 C 12,2 C 70 % 0 lf 1009,3 hPa 0,0 l/m 2 min 0 min 438 W/m 42,8 km/h (6 Bft) 100,00 %
01.05.2018 11:08 10,0 C 12,2 C 11,7 C 69 % 0 lf 1009,4 hPa 0,0 l/m 2 min 0 min 407 W/m 45,1 km/h (6 Bft) 97,87 %
01.05.2018 11:10 10,1 C 13,3 C 12,2 C 70 % 0 lf 1009,4 hPa 0,0 l/m 2 min 0 min 431 W/m 31,5 km/h (5 Bft) 100,00 %
01.05.2018 11:12 10,1 C 13,3 C 12,2 C 71 % 0 lf 1009,5 hPa 0,0 l/m 2 min 0 min 429 W/m 27,0 km/h (4 Bft) 100,00 %
01.05.2018 11:14 10,1 C 12,8 C 11,7 C 70 % 0 lf 1009,5 hPa 0,0 l/m 2 min 0 min 391 W/m 38,3 km/h (5 Bft) 100,00 %
01.05.2018 11:16 10,2 C 13,3 C 11,7 C 70 % 0 lf 1009,5 hPa 0,0 l/m 2 min 0 min 383 W/m 24,8 km/h (4 Bft) 97,87 %
01.05.2018 11:18 10,2 C 12,2 C 11,7 C 70 % 0 lf 1009,6 hPa 0,0 l/m 2 min 0 min 362 W/m 38,3 km/h (5 Bft) 100,00 %
01.05.2018 11:20 10,1 C 12,2 C 11,7 C 69 % 0 lf 1009,6 hPa 0,0 l/m 2 min 0 min 354 W/m 36,0 km/h (5 Bft) 95,74 %
01.05.2018 11:22 10,2 C 12,2 C 11,7 C 69 % 0 lf 1009,6 hPa 0,0 l/m 0 min 0 min 340 W/m 33,8 km/h (5 Bft) 95,65 %
01.05.2018 11:24 10,1 C 12,2 C 11,7 C 69 % 0 lf 1009,7 hPa 0,0 l/m 0 min 0 min 340 W/m 36,0 km/h (5 Bft) 97,87 %
01.05.2018 11:26 10,1 C 11,7 C 11,1 C 69 % 0 lf 1009,6 hPa 0,0 l/m 2 min 0 min 371 W/m 42,8 km/h (6 Bft) 95,74 %
01.05.2018 11:28 10,1 C 11,7 C 11,1 C 69 % 0 lf 1009,6 hPa 0,0 l/m 0 min 0 min 337 W/m 40,6 km/h (6 Bft) 97,87 %
01.05.2018 11:30 10,1 C 11,7 C 11,1 C 68 % 0 lf 1009,6 hPa 0,0 l/m 0 min 0 min 333 W/m 42,8 km/h (6 Bft) 93,62 %
01.05.2018 11:32 10,1 C 11,7 C 11,1 C 69 % 0 lf 1009,6 hPa 0,0 l/m 0 min 0 min 314 W/m 27,0 km/h (4 Bft) 97,87 %
01.05.2018 11:34 10,1 C 12,2 C 11,7 C 69 % 0 lf 1009,7 hPa 0,0 l/m 0 min 0 min 319 W/m 22,5 km/h (4 Bft) 97,83 %
01.05.2018 11:36 10,1 C 12,2 C 11,7 C 70 % 0 lf 1009,7 hPa 0,0 l/m 0 min 0 min 354 W/m 38,3 km/h (5 Bft) 95,74 %
01.05.2018 11:38 10,1 C 12,2 C 11,7 C 69 % 0 lf 1009,6 hPa 0,0 l/m 2 min 0 min 360 W/m 47,3 km/h (6 Bft) 97,87 %
01.05.2018 11:40 10,1 C 11,7 C 11,1 C 69 % 0 lf 1009,6 hPa 0,0 l/m 0 min 0 min 337 W/m 31,5 km/h (5 Bft) 95,74 %
01.05.2018 11:42 10,1 C 11,7 C 11,1 C 68 % 0 lf 1009,8 hPa 0,0 l/m 0 min 0 min 324 W/m 40,6 km/h (6 Bft) 97,87 %
01.05.2018 11:44 10,1 C 11,7 C 11,1 C 67 % 0 lf 1009,7 hPa 0,0 l/m 0 min 0 min 326 W/m 47,3 km/h (6 Bft) 97,83 %
01.05.2018 11:46 10,1 C 11,7 C 11,1 C 67 % 0 lf 1009,8 hPa 0,0 l/m 0 min 0 min 335 W/m 47,3 km/h (6 Bft) 97,87 %
01.05.2018 11:48 10,1 C 11,7 C 11,1 C 66 % 0 lf 1009,8 hPa 0,0 l/m 0 min 0 min 337 W/m 47,3 km/h (6 Bft) 95,74 %
01.05.2018 11:50 10,1 C 11,7 C 11,1 C 67 % 0 lf 1009,9 hPa 0,0 l/m 0 min 0 min 341 W/m 47,3 km/h (6 Bft) 95,74 %
01.05.2018 11:52 10,1 C 11,7 C 11,1 C 67 % 0 lf 1009,9 hPa 0,0 l/m 0 min 0 min 338 W/m 40,6 km/h (6 Bft) 97,87 %
01.05.2018 11:54 10,1 C 11,7 C 11,1 C 67 % 0 lf 1009,9 hPa 0,0 l/m 0 min 0 min 330 W/m 51,8 km/h (7 Bft) 95,74 %
01.05.2018 11:56 10,1 C 11,7 C 11,1 C 68 % 0 lf 1009,9 hPa 0,0 l/m 0 min 0 min 331 W/m 51,8 km/h (7 Bft) 97,87 %
01.05.2018 11:58 10,1 C 11,1 C 11,1 C 67 % 0 lf 1009,9 hPa 0,0 l/m 0 min 0 min 341 W/m 47,3 km/h (6 Bft) 95,65 %
01.05.2018 12:00 10,1 C 11,7 C 11,1 C 67 % 0 lf 1009,8 hPa 0,0 l/m 0 min 0 min 347 W/m 33,8 km/h (5 Bft) 95,74 %
01.05.2018 12:02 10,2 C 11,1 C 11,1 C 67 % 0 lf 1009,9 hPa 0,0 l/m 0 min 0 min 351 W/m 45,1 km/h (6 Bft) 93,62 %
01.05.2018 12:04 10,2 C 11,7 C 11,1 C 67 % 0 lf 1009,9 hPa 0,0 l/m 0 min 0 min 341 W/m 45,1 km/h (6 Bft) 93,62 %
01.05.2018 12:08 10,2 C 11,7 C 11,1 C 67 % 0 lf 1009,9 hPa 0,0 l/m 0 min 0 min 356 W/m 40,6 km/h (6 Bft) 96,34 %
01.05.2018 12:10 10,2 C 12,2 C 11,7 C 68 % 0 lf 1009,8 hPa 0,0 l/m 0 min 0 min 354 W/m 29,3 km/h (5 Bft) 97,87 %
01.05.2018 12:12 10,3 C 12,2 C 11,7 C 68 % 0 lf 1009,9 hPa 0,0 l/m 0 min 0 min 355 W/m 29,3 km/h (5 Bft) 95,65 %
01.05.2018 12:14 10,4 C 12,2 C 11,7 C 69 % 0 lf 1009,9 hPa 0,0 l/m 0 min 0 min 337 W/m 31,5 km/h (5 Bft) 97,87 %
01.05.2018 12:16 10,4 C 12,2 C 11,7 C 69 % 0 lf 1009,9 hPa 0,0 l/m 0 min 0 min 334 W/m 38,3 km/h (5 Bft) 97,87 %
01.05.2018 12:18 10,4 C 12,2 C 11,7 C 68 % 0 lf 1009,9 hPa 0,0 l/m 0 min 0 min 331 W/m 38,3 km/h (5 Bft) 97,87 %
01.05.2018 12:20 10,5 C 12,2 C 11,7 C 69 % 0 lf 1009,9 hPa 0,0 l/m 0 min 0 min 331 W/m 31,5 km/h (5 Bft) 98,28 %
01.05.2018 12:22 10,5 C 12,2 C 11,7 C 68 % 0 lf 1010,0 hPa 0,0 l/m 0 min 0 min 319 W/m 40,6 km/h (6 Bft) 94,44 %
01.05.2018 12:24 10,5 C 12,2 C 11,1 C 68 % 0 lf 1010,0 hPa 0,0 l/m 0 min 0 min 330 W/m 45,1 km/h (6 Bft) 95,65 %
01.05.2018 12:26 10,5 C 12,2 C 11,7 C 68 % 0 lf 1010,0 hPa 0,0 l/m 0 min 0 min 340 W/m 45,1 km/h (6 Bft) 93,62 %
01.05.2018 12:28 10,5 C 12,2 C 11,7 C 67 % 0 lf 1010,0 hPa 0,0 l/m 0 min 0 min 363 W/m 42,8 km/h (6 Bft) 97,87 %
01.05.2018 12:30 10,5 C 12,2 C 11,7 C 67 % 0 lf 1010,0 hPa 0,0 l/m 0 min 0 min 374 W/m 40,6 km/h (6 Bft) 95,74 %
01.05.2018 12:32 10,6 C 12,2 C 11,7 C 68 % 0 lf 1010,1 hPa 0,0 l/m 2 min 0 min 387 W/m 45,1 km/h (6 Bft) 97,87 %
01.05.2018 12:34 10,6 C 12,2 C 11,7 C 67 % 0 lf 1010,0 hPa 0,0 l/m 2 min 0 min 392 W/m 42,8 km/h (6 Bft) 97,87 %
01.05.2018 12:36 10,6 C 12,2 C 11,7 C 68 % 0 lf 1010,0 hPa 0,0 l/m 0 min 0 min 374 W/m 42,8 km/h (6 Bft) 100,00 %
01.05.2018 12:38 10,7 C 12,8 C 12,2 C 69 % 0 lf 1010,0 hPa 0,0 l/m 2 min 0 min 400 W/m 29,3 km/h (5 Bft) 97,87 %
01.05.2018 12:40 10,7 C 12,8 C 12,2 C 68 % 0 lf 1010,1 hPa 0,0 l/m 2 min 0 min 423 W/m 42,8 km/h (6 Bft) 97,87 %
01.05.2018 12:42 10,7 C 12,8 C 12,2 C 68 % 0 lf 1010,0 hPa 0,0 l/m 2 min 0 min 413 W/m 40,6 km/h (6 Bft) 93,62 %
01.05.2018 12:44 10,8 C 12,8 C 12,2 C 67 % 0 lf 1010,0 hPa 0,0 l/m 2 min 0 min 399 W/m 42,8 km/h (6 Bft) 100,00 %
01.05.2018 12:46 10,8 C 12,8 C 12,2 C 67 % 0 lf 1010,0 hPa 0,0 l/m 2 min 0 min 394 W/m 33,8 km/h (5 Bft) 100,00 %
01.05.2018 12:48 10,8 C 13,3 C 12,8 C 67 % 0 lf 1010,0 hPa 0,0 l/m 0 min 0 min 372 W/m 29,3 km/h (5 Bft) 97,83 %
01.05.2018 12:50 10,9 C 13,3 C 12,8 C 68 % 0 lf 1010,1 hPa 0,0 l/m 0 min 0 min 387 W/m 24,8 km/h (4 Bft) 100,00 %
01.05.2018 12:52 11,0 C 13,9 C 13,3 C 68 % 0 lf 1010,1 hPa 0,0 l/m 2 min 0 min 434 W/m 27,0 km/h (4 Bft) 94,29 %
01.05.2018 12:54 11,1 C 13,9 C 13,3 C 69 % 0 lf 1010,1 hPa 0,0 l/m 2 min 0 min 491 W/m 24,8 km/h (4 Bft) 100,00 %
01.05.2018 12:56 11,2 C 14,4 C 13,3 C 69 % 0 lf 1010,1 hPa 0,0 l/m 2 min 0 min 510 W/m 36,0 km/h (5 Bft) 97,87 %
01.05.2018 12:58 11,2 C 15,0 C 13,9 C 68 % 0 lf 1010,2 hPa 0,0 l/m 2 min 0 min 517 W/m 27,0 km/h (4 Bft) 93,48 %
01.05.2018 13:00 11,3 C 15,0 C 13,9 C 68 % 0 lf 1010,2 hPa 0,0 l/m 2 min 0 min 540 W/m 27,0 km/h (4 Bft) 95,74 %
01.05.2018 13:02 11,4 C 15,6 C 13,9 C 68 % 0 lf 1010,2 hPa 0,0 l/m 2 min 0 min 537 W/m 24,8 km/h (4 Bft) 93,62 %
01.05.2018 13:04 11,5 C 15,0 C 13,9 C 67 % 0 lf 1010,3 hPa 0,0 l/m 2 min 0 min 537 W/m 40,6 km/h (6 Bft) 95,74 %
01.05.2018 13:08 11,6 C 15,0 C 13,3 C 66 % 0 lf 1010,3 hPa 0,0 l/m 4 min 0 min 574 W/m 42,8 km/h (6 Bft) 93,62 %
01.05.2018 13:10 11,7 C 15,0 C 13,3 C 66 % 0 lf 1010,2 hPa 0,0 l/m 2 min 0 min 594 W/m 33,8 km/h (5 Bft) 95,65 %
01.05.2018 13:12 11,7 C 15,0 C 13,9 C 66 % 0 lf 1010,4 hPa 0,0 l/m 2 min 0 min 572 W/m 36,0 km/h (5 Bft) 95,74 %
01.05.2018 13:14 11,7 C 15,0 C 13,3 C 64 % 0 lf 1010,4 hPa 0,0 l/m 2 min 0 min 533 W/m 49,6 km/h (6 Bft) 95,74 %
01.05.2018 13:16 11,7 C 14,4 C 13,3 C 64 % 0 lf 1010,3 hPa 0,0 l/m 2 min 0 min 521 W/m 38,3 km/h (5 Bft) 93,62 %
01.05.2018 13:18 11,7 C 14,4 C 13,3 C 64 % 0 lf 1010,4 hPa 0,0 l/m 2 min 0 min 471 W/m 33,8 km/h (5 Bft) 95,74 %
01.05.2018 13:20 11,7 C 14,4 C 12,8 C 64 % 0 lf 1010,4 hPa 0,0 l/m 2 min 0 min 453 W/m 36,0 km/h (5 Bft) 96,55 %
01.05.2018 13:22 11,7 C 14,4 C 13,3 C 65 % 0 lf 1010,4 hPa 0,0 l/m 2 min 0 min 426 W/m 36,0 km/h (5 Bft) 91,43 %
01.05.2018 13:24 11,8 C 14,4 C 13,3 C 66 % 0 lf 1010,5 hPa 0,0 l/m 2 min 0 min 443 W/m 31,5 km/h (5 Bft) 95,74 %
01.05.2018 13:26 11,8 C 13,9 C 13,3 C 66 % 0 lf 1010,4 hPa 0,0 l/m 2 min 0 min 436 W/m 33,8 km/h (5 Bft) 95,74 %
01.05.2018 13:28 11,8 C 13,9 C 12,8 C 65 % 0 lf 1010,5 hPa 0,0 l/m 2 min 0 min 418 W/m 38,3 km/h (5 Bft) 93,62 %
01.05.2018 13:30 11,8 C 13,9 C 12,8 C 64 % 0 lf 1010,5 hPa 0,0 l/m 2 min 0 min 411 W/m 31,5 km/h (5 Bft) 95,74 %
01.05.2018 13:32 11,7 C 13,9 C 12,8 C 65 % 0 lf 1010,5 hPa 0,0 l/m 2 min 0 min 420 W/m 31,5 km/h (5 Bft) 91,49 %
01.05.2018 13:34 11,7 C 13,9 C 12,8 C 64 % 0 lf 1010,5 hPa 0,0 l/m 2 min 0 min 399 W/m 38,3 km/h (5 Bft) 95,65 %
01.05.2018 13:36 11,7 C 13,3 C 12,8 C 65 % 0 lf 1010,6 hPa 0,0 l/m 2 min 0 min 394 W/m 40,6 km/h (6 Bft) 95,74 %
01.05.2018 13:38 11,7 C 13,9 C 13,3 C 66 % 0 lf 1010,5 hPa 0,0 l/m 0 min 0 min 386 W/m 29,3 km/h (5 Bft) 95,74 %
01.05.2018 13:40 11,7 C 13,9 C 13,3 C 64 % 0 lf 1010,4 hPa 0,0 l/m 2 min 0 min 439 W/m 31,5 km/h (5 Bft) 95,74 %
01.05.2018 13:42 11,8 C 14,4 C 13,3 C 64 % 0 lf 1010,6 hPa 0,0 l/m 2 min 0 min 414 W/m 33,8 km/h (5 Bft) 93,62 %
01.05.2018 13:44 11,8 C 15,0 C 13,3 C 63 % 0 lf 1010,6 hPa 0,0 l/m 2 min 0 min 522 W/m 24,8 km/h (4 Bft) 95,74 %
01.05.2018 13:46 11,8 C 15,0 C 13,3 C 63 % 0 lf 1010,8 hPa 0,0 l/m 2 min 0 min 559 W/m 42,8 km/h (6 Bft) 97,87 %
01.05.2018 13:48 11,9 C 15,6 C 13,3 C 62 % 0 lf 1010,7 hPa 0,0 l/m 2 min 0 min 592 W/m 38,3 km/h (5 Bft) 95,74 %
01.05.2018 13:50 11,9 C 15,0 C 13,9 C 62 % 0 lf 1010,6 hPa 0,0 l/m 2 min 0 min 592 W/m 42,8 km/h (6 Bft) 100,00 %
01.05.2018 13:52 11,9 C 15,6 C 13,9 C 62 % 0 lf 1010,7 hPa 0,0 l/m 2 min 0 min 602 W/m 36,0 km/h (5 Bft) 95,74 %
01.05.2018 13:54 12,0 C 16,1 C 13,9 C 62 % 0 lf 1010,8 hPa 0,0 l/m 2 min 0 min 624 W/m 38,3 km/h (5 Bft) 100,00 %
01.05.2018 13:56 12,1 C 16,1 C 13,9 C 62 % 0 lf 1010,8 hPa 0,0 l/m 2 min 0 min 628 W/m 33,8 km/h (5 Bft) 97,87 %
01.05.2018 13:58 12,2 C 16,7 C 14,4 C 61 % 0 lf 1010,7 hPa 0,0 l/m 2 min 0 min 650 W/m 31,5 km/h (5 Bft) 97,83 %
01.05.2018 14:00 12,2 C 16,7 C 14,4 C 58 % 0 lf 1010,7 hPa 0,0 l/m 2 min 0 min 658 W/m 33,8 km/h (5 Bft) 91,49 %
01.05.2018 14:02 12,3 C 16,7 C 14,4 C 57 % 0 lf 1010,8 hPa 0,0 l/m 2 min 0 min 698 W/m 40,6 km/h (6 Bft) 97,87 %
01.05.2018 14:04 12,4 C 17,8 C 15,0 C 58 % 0 lf 1010,7 hPa 0,0 l/m 2 min 0 min 717 W/m 27,0 km/h (4 Bft) 93,62 %
01.05.2018 14:08 12,7 C 17,8 C 15,0 C 57 % 0 lf 1010,6 hPa 0,0 l/m 4 min 0 min 724 W/m 36,0 km/h (5 Bft) 94,68 %
01.05.2018 14:10 12,8 C 17,8 C 15,0 C 56 % 0 lf 1010,6 hPa 0,0 l/m 2 min 0 min 723 W/m 33,8 km/h (5 Bft) 95,65 %
01.05.2018 14:12 12,8 C 17,8 C 15,0 C 57 % 0 lf 1010,6 hPa 0,0 l/m 2 min 0 min 702 W/m 38,3 km/h (5 Bft) 97,87 %
01.05.2018 14:14 12,9 C 17,2 C 15,0 C 57 % 0 lf 1010,7 hPa 0,0 l/m 2 min 0 min 672 W/m 29,3 km/h (5 Bft) 95,74 %
01.05.2018 14:16 13,0 C 17,8 C 15,6 C 58 % 0 lf 1010,7 hPa 0,0 l/m 2 min 0 min 681 W/m 29,3 km/h (5 Bft) 93,62 %
01.05.2018 14:18 13,1 C 16,7 C 15,0 C 56 % 0 lf 1010,7 hPa 0,0 l/m 2 min 0 min 691 W/m 36,0 km/h (5 Bft) 95,74 %
01.05.2018 14:20 13,1 C 16,7 C 15,0 C 55 % 0 lf 1010,8 hPa 0,0 l/m 2 min 0 min 687 W/m 31,5 km/h (5 Bft) 95,65 %
01.05.2018 14:22 13,2 C 17,2 C 15,0 C 56 % 0 lf 1010,8 hPa 0,0 l/m 2 min 0 min 683 W/m 29,3 km/h (5 Bft) 93,62 %
01.05.2018 14:24 13,2 C 17,8 C 15,6 C 56 % 0 lf 1010,8 hPa 0,0 l/m 2 min 0 min 665 W/m 29,3 km/h (5 Bft) 93,62 %
01.05.2018 14:26 13,2 C 17,2 C 15,0 C 56 % 0 lf 1010,8 hPa 0,0 l/m 2 min 0 min 634 W/m 38,3 km/h (5 Bft) 93,62 %
01.05.2018 14:28 13,3 C 16,7 C 15,0 C 56 % 0 lf 1010,8 hPa 0,0 l/m 2 min 0 min 614 W/m 27,0 km/h (4 Bft) 95,74 %
01.05.2018 14:30 13,3 C 17,2 C 15,6 C 56 % 0 lf 1010,9 hPa 0,0 l/m 2 min 0 min 627 W/m 29,3 km/h (5 Bft) 95,74 %
01.05.2018 14:32 13,3 C 17,2 C 15,0 C 56 % 0 lf 1010,8 hPa 0,0 l/m 2 min 0 min 598 W/m 31,5 km/h (5 Bft) 95,65 %
01.05.2018 14:34 13,3 C 17,2 C 15,6 C 56 % 0 lf 1010,8 hPa 0,0 l/m 2 min 0 min 634 W/m 31,5 km/h (5 Bft) 91,49 %
01.05.2018 14:36 13,3 C 17,2 C 15,6 C 57 % 0 lf 1010,8 hPa 0,0 l/m 2 min 0 min 653 W/m 27,0 km/h (4 Bft) 95,74 %
01.05.2018 14:38 13,4 C 17,2 C 15,6 C 57 % 0 lf 1010,9 hPa 0,0 l/m 2 min 0 min 667 W/m 27,0 km/h (4 Bft) 97,87 %
01.05.2018 14:40 13,4 C 17,8 C 15,6 C 56 % 0 lf 1010,9 hPa 0,0 l/m 2 min 0 min 714 W/m 33,8 km/h (5 Bft) 95,74 %
01.05.2018 14:42 13,4 C 18,3 C 15,6 C 57 % 0 lf 1010,9 hPa 0,0 l/m 2 min 0 min 734 W/m 31,5 km/h (5 Bft) 97,87 %
01.05.2018 14:44 13,5 C 18,9 C 15,6 C 57 % 0 lf 1010,9 hPa 0,0 l/m 2 min 0 min 762 W/m 33,8 km/h (5 Bft) 93,48 %
01.05.2018 14:46 13,6 C 18,9 C 16,1 C 58 % 0 lf 1010,9 hPa 0,0 l/m 2 min 0 min 778 W/m 22,5 km/h (4 Bft) 95,74 %
01.05.2018 14:48 13,7 C 18,9 C 16,1 C 57 % 0 lf 1010,9 hPa 0,0 l/m 2 min 0 min 765 W/m 29,3 km/h (5 Bft) 97,87 %
01.05.2018 14:50 13,7 C 18,3 C 16,1 C 55 % 0 lf 1010,9 hPa 0,0 l/m 2 min 0 min 802 W/m 42,8 km/h (6 Bft) 95,74 %
01.05.2018 14:52 13,7 C 18,3 C 16,7 C 54 % 0 lf 1010,9 hPa 0,0 l/m 2 min 0 min 810 W/m 38,3 km/h (5 Bft) 97,87 %
01.05.2018 14:54 13,7 C 18,9 C 16,7 C 55 % 0 lf 1011,0 hPa 0,0 l/m 2 min 0 min 794 W/m 27,0 km/h (4 Bft) 98,11 %
01.05.2018 14:56 13,8 C 18,9 C 17,2 C 55 % 0 lf 1011,0 hPa 0,0 l/m 2 min 0 min 794 W/m 27,0 km/h (4 Bft) 93,62 %
01.05.2018 14:58 13,8 C 19,4 C 17,8 C 54 % 0 lf 1011,0 hPa 0,0 l/m 2 min 0 min 852 W/m 33,8 km/h (5 Bft) 100,00 %
01.05.2018 15:00 13,9 C 19,4 C 17,8 C 54 % 0 lf 1010,9 hPa 0,0 l/m 2 min 0 min 869 W/m 27,0 km/h (4 Bft) 100,00 %
01.05.2018 15:02 13,9 C 20,0 C 17,8 C 53 % 0 lf 1010,9 hPa 0,0 l/m 2 min 0 min 872 W/m 33,8 km/h (5 Bft) 97,87 %
01.05.2018 15:04 14,0 C 20,0 C 18,9 C 54 % 0 lf 1010,9 hPa 0,0 l/m 2 min 0 min 874 W/m 29,3 km/h (5 Bft) 100,00 %
01.05.2018 15:06 14,0 C 20,0 C 18,9 C 52 % 0 lf 1011,0 hPa 0,0 l/m 2 min 0 min 857 W/m 47,3 km/h (6 Bft) 100,00 %
01.05.2018 15:08 14,1 C 19,4 C 19,4 C 53 % 0 lf 1010,9 hPa 0,0 l/m 2 min 0 min 845 W/m 33,8 km/h (5 Bft) 100,00 %
01.05.2018 15:10 14,2 C 20,0 C 20,0 C 55 % 0 lf 1010,9 hPa 0,0 l/m 2 min 0 min 852 W/m 24,8 km/h (4 Bft) 100,00 %
01.05.2018 15:12 14,2 C 20,6 C 20,6 C 54 % 0 lf 1010,9 hPa 0,0 l/m 2 min 0 min 875 W/m 24,8 km/h (4 Bft) 100,00 %
01.05.2018 15:14 14,2 C 21,1 C 21,1 C 53 % 0 lf 1010,9 hPa 0,0 l/m 2 min 0 min 888 W/m 27,0 km/h (4 Bft) 93,62 %
01.05.2018 15:16 14,4 C 21,1 C 22,2 C 54 % 0 lf 1011,0 hPa 0,0 l/m 2 min 0 min 851 W/m 27,0 km/h (4 Bft) 97,83 %
01.05.2018 15:18 14,5 C 20,6 C 21,1 C 54 % 0 lf 1011,0 hPa 0,0 l/m 2 min 0 min 828 W/m 29,3 km/h (5 Bft) 100,00 %
01.05.2018 15:20 14,6 C 20,0 C 21,1 C 54 % 0 lf 1011,1 hPa 0,0 l/m 2 min 0 min 824 W/m 38,3 km/h (5 Bft) 100,00 %
01.05.2018 15:22 14,6 C 19,4 C 21,1 C 54 % 0 lf 1011,1 hPa 0,0 l/m 2 min 0 min 841 W/m 31,5 km/h (5 Bft) 100,00 %
01.05.2018 15:24 14,7 C 19,4 C 21,1 C 53 % 0 lf 1011,2 hPa 0,0 l/m 2 min 0 min 861 W/m 33,8 km/h (5 Bft) 97,87 %
01.05.2018 15:26 14,7 C 20,0 C 21,1 C 52 % 0 lf 1011,1 hPa 0,0 l/m 2 min 0 min 877 W/m 33,8 km/h (5 Bft) 97,87 %
01.05.2018 15:28 14,7 C 20,6 C 22,2 C 54 % 0 lf 1011,1 hPa 0,0 l/m 2 min 0 min 896 W/m 22,5 km/h (4 Bft) 100,00 %
01.05.2018 15:30 14,7 C 21,1 C 22,8 C 53 % 0 lf 1011,1 hPa 0,0 l/m 2 min 0 min 911 W/m 29,3 km/h (5 Bft) 100,00 %
01.05.2018 15:32 14,8 C 20,0 C 21,7 C 54 % 0 lf 1011,1 hPa 0,0 l/m 2 min 0 min 911 W/m 33,8 km/h (5 Bft) 97,56 %
01.05.2018 15:34 14,8 C 19,4 C 21,1 C 52 % 0 lf 1011,2 hPa 0,0 l/m 2 min 0 min 911 W/m 22,5 km/h (4 Bft) 100,00 %
01.05.2018 15:36 14,8 C 20,6 C 22,2 C 54 % 0 lf 1011,1 hPa 0,0 l/m 2 min 0 min 884 W/m 24,8 km/h (4 Bft) 100,00 %
01.05.2018 15:38 14,9 C 21,7 C 22,8 C 53 % 0 lf 1011,2 hPa 0,0 l/m 2 min 0 min 883 W/m 18,0 km/h (3 Bft) 96,43 %
01.05.2018 15:40 15,0 C 21,7 C 23,3 C 51 % 0 lf 1011,1 hPa 0,0 l/m 2 min 0 min 849 W/m 22,5 km/h (4 Bft) 97,87 %
01.05.2018 15:42 15,0 C 19,4 C 21,1 C 51 % 0 lf 1011,2 hPa 0,0 l/m 2 min 0 min 858 W/m 36,0 km/h (5 Bft) 97,87 %
01.05.2018 15:44 15,0 C 19,4 C 21,1 C 50 % 0 lf 1011,2 hPa 0,0 l/m 2 min 0 min 771 W/m 31,5 km/h (5 Bft) 97,87 %
01.05.2018 15:46 15,0 C 18,9 C 21,1 C 50 % 0 lf 1011,3 hPa 0,0 l/m 2 min 0 min 656 W/m 24,8 km/h (4 Bft) 95,74 %
01.05.2018 15:48 15,0 C 18,9 C 21,1 C 50 % 0 lf 1011,3 hPa 0,0 l/m 2 min 0 min 642 W/m 27,0 km/h (4 Bft) 97,87 %
01.05.2018 15:50 15,1 C 20,0 C 21,7 C 52 % 0 lf 1011,3 hPa 0,0 l/m 2 min 0 min 681 W/m 24,8 km/h (4 Bft) 95,65 %
01.05.2018 15:52 15,1 C 18,9 C 21,7 C 51 % 0 lf 1011,3 hPa 0,0 l/m 2 min 0 min 691 W/m 31,5 km/h (5 Bft) 97,87 %
01.05.2018 15:54 15,1 C 18,9 C 21,1 C 50 % 0 lf 1011,3 hPa 0,0 l/m 2 min 0 min 666 W/m 24,8 km/h (4 Bft) 95,74 %
01.05.2018 15:56 15,1 C 18,3 C 20,6 C 49 % 0 lf 1011,3 hPa 0,0 l/m 2 min 0 min 609 W/m 29,3 km/h (5 Bft) 97,87 %
01.05.2018 15:58 14,9 C 17,2 C 19,4 C 48 % 0 lf 1011,3 hPa 0,0 l/m 2 min 0 min 595 W/m 31,5 km/h (5 Bft) 97,87 %
01.05.2018 16:00 14,8 C 17,2 C 19,4 C 47 % 0 lf 1011,3 hPa 0,0 l/m 2 min 0 min 614 W/m 33,8 km/h (5 Bft) 97,87 %
01.05.2018 16:02 14,8 C 17,8 C 19,4 C 47 % 0 lf 1011,2 hPa 0,0 l/m 2 min 0 min 612 W/m 22,5 km/h (4 Bft) 89,13 %
01.05.2018 16:04 14,7 C 17,2 C 19,4 C 47 % 0 lf 1011,2 hPa 0,0 l/m 2 min 0 min 564 W/m 31,5 km/h (5 Bft) 91,49 %
01.05.2018 16:06 14,7 C 17,8 C 20,0 C 47 % 0 lf 1011,2 hPa 0,0 l/m 2 min 0 min 631 W/m 27,0 km/h (4 Bft) 95,74 %
01.05.2018 16:08 14,7 C 17,8 C 20,0 C 47 % 0 lf 1011,2 hPa 0,0 l/m 2 min 0 min 622 W/m 31,5 km/h (5 Bft) 95,74 %
01.05.2018 16:10 14,7 C 18,3 C 20,6 C 48 % 0 lf 1011,2 hPa 0,0 l/m 2 min 0 min 624 W/m 27,0 km/h (4 Bft) 93,62 %
01.05.2018 16:12 14,7 C 18,3 C 20,6 C 47 % 0 lf 1011,2 hPa 0,0 l/m 2 min 0 min 632 W/m 31,5 km/h (5 Bft) 95,74 %
01.05.2018 16:14 14,7 C 18,3 C 20,6 C 49 % 0 lf 1011,2 hPa 0,0 l/m 2 min 0 min 632 W/m 24,8 km/h (4 Bft) 91,30 %
01.05.2018 16:16 14,7 C 17,8 C 20,0 C 48 % 0 lf 1011,3 hPa 0,0 l/m 2 min 0 min 657 W/m 31,5 km/h (5 Bft) 93,62 %
01.05.2018 16:18 14,8 C 17,8 C 18,9 C 48 % 0 lf 1011,3 hPa 0,0 l/m 2 min 0 min 683 W/m 33,8 km/h (5 Bft) 95,74 %
01.05.2018 16:20 14,8 C 18,3 C 18,3 C 48 % 0 lf 1011,2 hPa 0,0 l/m 2 min 0 min 690 W/m 27,0 km/h (4 Bft) 89,36 %
01.05.2018 16:22 14,8 C 17,8 C 17,2 C 47 % 0 lf 1011,3 hPa 0,0 l/m 2 min 0 min 677 W/m 29,3 km/h (5 Bft) 95,74 %
01.05.2018 16:24 14,8 C 17,2 C 16,7 C 47 % 0 lf 1011,2 hPa 0,0 l/m 2 min 0 min 668 W/m 29,3 km/h (5 Bft) 93,48 %
01.05.2018 16:26 14,8 C 16,7 C 16,1 C 46 % 0 lf 1011,3 hPa 0,0 l/m 2 min 0 min 670 W/m 29,3 km/h (5 Bft) 93,62 %
01.05.2018 16:28 14,8 C 17,2 C 16,7 C 46 % 0 lf 1011,3 hPa 0,0 l/m 2 min 0 min 670 W/m 29,3 km/h (5 Bft) 95,74 %
01.05.2018 16:30 14,8 C 16,7 C 16,1 C 46 % 0 lf 1011,4 hPa 0,0 l/m 2 min 0 min 680 W/m 31,5 km/h (5 Bft) 93,62 %
01.05.2018 16:32 14,8 C 16,7 C 16,7 C 47 % 0 lf 1011,3 hPa 0,0 l/m 2 min 0 min 663 W/m 27,0 km/h (4 Bft) 97,56 %
01.05.2018 16:34 14,8 C 15,6 C 16,1 C 47 % 0 lf 1011,3 hPa 0,0 l/m 2 min 0 min 646 W/m 36,0 km/h (5 Bft) 93,62 %
01.05.2018 16:36 14,8 C 16,1 C 16,1 C 48 % 0 lf 1011,3 hPa 0,0 l/m 2 min 0 min 647 W/m 29,3 km/h (5 Bft) 93,33 %
01.05.2018 16:38 14,7 C 15,6 C 16,1 C 47 % 0 lf 1011,4 hPa 0,0 l/m 2 min 0 min 649 W/m 24,8 km/h (4 Bft) 91,49 %
01.05.2018 16:40 14,7 C 15,6 C 17,2 C 49 % 0 lf 1011,4 hPa 0,0 l/m 2 min 0 min 648 W/m 27,0 km/h (4 Bft) 93,48 %
01.05.2018 16:42 14,8 C 15,6 C 18,3 C 48 % 0 lf 1011,4 hPa 0,0 l/m 2 min 0 min 635 W/m 18,0 km/h (3 Bft) 97,87 %
01.05.2018 16:44 14,8 C 15,6 C 18,9 C 50 % 0 lf 1011,4 hPa 0,0 l/m 2 min 0 min 637 W/m 31,5 km/h (5 Bft) 93,62 %
01.05.2018 16:46 14,8 C 15,6 C 17,2 C 48 % 0 lf 1011,4 hPa 0,0 l/m 2 min 0 min 636 W/m 31,5 km/h (5 Bft) 91,84 %
01.05.2018 16:48 14,9 C 15,6 C 16,1 C 48 % 0 lf 1011,5 hPa 0,0 l/m 2 min 0 min 636 W/m 24,8 km/h (4 Bft) 95,74 %
01.05.2018 16:50 14,9 C 15,6 C 16,1 C 48 % 0 lf 1011,5 hPa 0,0 l/m 2 min 0 min 632 W/m 38,3 km/h (5 Bft) 93,88 %
01.05.2018 16:52 14,9 C 15,6 C 16,1 C 48 % 0 lf 1011,5 hPa 0,0 l/m 2 min 0 min 623 W/m 22,5 km/h (4 Bft) 95,74 %
01.05.2018 16:54 14,9 C 15,6 C 16,1 C 48 % 0 lf 1011,5 hPa 0,0 l/m 2 min 0 min 613 W/m 24,8 km/h (4 Bft) 93,62 %
01.05.2018 16:56 14,9 C 15,6 C 16,1 C 47 % 0 lf 1011,5 hPa 0,0 l/m 2 min 0 min 605 W/m 31,5 km/h (5 Bft) 95,74 %
01.05.2018 16:58 14,9 C 15,0 C 15,6 C 47 % 0 lf 1011,4 hPa 0,0 l/m 2 min 0 min 589 W/m 31,5 km/h (5 Bft) 93,62 %
01.05.2018 17:00 14,8 C 15,0 C 15,0 C 46 % 0 lf 1011,3 hPa 0,0 l/m 2 min 0 min 583 W/m 36,0 km/h (5 Bft) 95,74 %
01.05.2018 17:02 14,7 C 15,0 C 15,0 C 47 % 0 lf 1011,4 hPa 0,0 l/m 2 min 0 min 582 W/m 31,5 km/h (5 Bft) 95,65 %
01.05.2018 17:04 14,7 C 15,0 C 15,0 C 48 % 0 lf 1011,4 hPa 0,0 l/m 2 min 0 min 575 W/m 27,0 km/h (4 Bft) 95,74 %
01.05.2018 17:06 14,7 C 15,0 C 15,6 C 48 % 0 lf 1011,4 hPa 0,0 l/m 2 min 0 min 556 W/m 22,5 km/h (4 Bft) 93,75 %
01.05.2018 17:08 14,8 C 15,6 C 15,6 C 51 % 0 lf 1011,3 hPa 0,0 l/m 2 min 0 min 579 W/m 15,8 km/h (3 Bft) 95,74 %
01.05.2018 17:10 14,9 C 16,1 C 16,1 C 50 % 0 lf 1011,4 hPa 0,0 l/m 2 min 0 min 576 W/m 15,8 km/h (3 Bft) 95,92 %
01.05.2018 17:12 14,9 C 15,6 C 15,6 C 48 % 0 lf 1011,4 hPa 0,0 l/m 2 min 0 min 568 W/m 27,0 km/h (4 Bft) 91,30 %
01.05.2018 17:14 15,0 C 15,6 C 15,6 C 49 % 0 lf 1011,4 hPa 0,0 l/m 2 min 0 min 562 W/m 22,5 km/h (4 Bft) 95,74 %
01.05.2018 17:16 15,1 C 15,6 C 15,6 C 49 % 0 lf 1011,4 hPa 0,0 l/m 2 min 0 min 543 W/m 24,8 km/h (4 Bft) 95,74 %
01.05.2018 17:18 15,1 C 15,6 C 15,0 C 48 % 0 lf 1011,4 hPa 0,0 l/m 2 min 0 min 526 W/m 22,5 km/h (4 Bft) 94,74 %
01.05.2018 17:20 15,1 C 15,6 C 14,4 C 47 % 0 lf 1011,4 hPa 0,0 l/m 2 min 0 min 525 W/m 20,3 km/h (4 Bft) 97,87 %
01.05.2018 17:22 15,1 C 15,6 C 14,4 C 45 % 0 lf 1011,4 hPa 0,0 l/m 2 min 0 min 521 W/m 22,5 km/h (4 Bft) 97,87 %
01.05.2018 17:24 15,1 C 15,6 C 13,9 C 46 % 0 lf 1011,3 hPa 0,0 l/m 2 min 0 min 521 W/m 22,5 km/h (4 Bft) 97,87 %
01.05.2018 17:26 15,1 C 15,6 C 14,4 C 46 % 0 lf 1011,4 hPa 0,0 l/m 2 min 0 min 509 W/m 24,8 km/h (4 Bft) 100,00 %
01.05.2018 17:28 15,1 C 16,1 C 14,4 C 46 % 0 lf 1011,3 hPa 0,0 l/m 2 min 0 min 509 W/m 18,0 km/h (3 Bft) 97,87 %
01.05.2018 17:30 15,1 C 15,6 C 14,4 C 48 % 0 lf 1011,3 hPa 0,0 l/m 2 min 0 min 503 W/m 18,0 km/h (3 Bft) 100,00 %
01.05.2018 17:32 15,2 C 16,1 C 14,4 C 48 % 0 lf 1011,3 hPa 0,0 l/m 2 min 0 min 493 W/m 15,8 km/h (3 Bft) 100,00 %
01.05.2018 17:34 15,2 C 15,6 C 14,4 C 47 % 0 lf 1011,4 hPa 0,0 l/m 2 min 0 min 493 W/m 20,3 km/h (4 Bft) 100,00 %
01.05.2018 17:36 15,2 C 15,6 C 13,9 C 47 % 0 lf 1011,4 hPa 0,0 l/m 2 min 0 min 496 W/m 18,0 km/h (3 Bft) 97,87 %
01.05.2018 17:38 15,2 C 15,6 C 13,9 C 46 % 0 lf 1011,4 hPa 0,0 l/m 2 min 0 min 488 W/m 18,0 km/h (3 Bft) 100,00 %
01.05.2018 17:40 15,3 C 15,6 C 13,9 C 47 % 0 lf 1011,4 hPa 0,0 l/m 2 min 0 min 492 W/m 18,0 km/h (3 Bft) 100,00 %
01.05.2018 17:42 15,2 C 15,6 C 13,9 C 47 % 0 lf 1011,4 hPa 0,0 l/m 2 min 0 min 423 W/m 22,5 km/h (4 Bft) 97,87 %
01.05.2018 17:44 15,2 C 15,0 C 13,9 C 48 % 0 lf 1011,5 hPa 0,0 l/m 2 min 0 min 348 W/m 22,5 km/h (4 Bft) 97,87 %
01.05.2018 17:46 15,1 C 15,0 C 13,9 C 48 % 0 lf 1011,5 hPa 0,0 l/m 2 min 0 min 489 W/m 27,0 km/h (4 Bft) 98,11 %
01.05.2018 17:48 15,1 C 15,6 C 14,4 C 48 % 0 lf 1011,4 hPa 0,0 l/m 2 min 0 min 502 W/m 27,0 km/h (4 Bft) 100,00 %
01.05.2018 17:50 15,0 C 15,6 C 14,4 C 47 % 0 lf 1011,4 hPa 0,0 l/m 2 min 0 min 479 W/m 15,8 km/h (3 Bft) 100,00 %
01.05.2018 17:52 15,0 C 15,0 C 14,4 C 47 % 0 lf 1011,4 hPa 0,0 l/m 0 min 0 min 206 W/m 22,5 km/h (4 Bft) 97,73 %
01.05.2018 17:54 15,0 C 15,0 C 14,4 C 47 % 0 lf 1011,3 hPa 0,0 l/m 2 min 0 min 437 W/m 18,0 km/h (3 Bft) 100,00 %
01.05.2018 17:56 14,9 C 15,0 C 13,9 C 46 % 0 lf 1011,3 hPa 0,0 l/m 2 min 0 min 432 W/m 18,0 km/h (3 Bft) 100,00 %
01.05.2018 17:58 14,9 C 15,6 C 13,9 C 47 % 0 lf 1011,4 hPa 0,0 l/m 2 min 0 min 445 W/m 15,8 km/h (3 Bft) 100,00 %
01.05.2018 18:00 15,0 C 15,6 C 14,4 C 49 % 0 lf 1011,4 hPa 0,0 l/m 2 min 0 min 442 W/m 18,0 km/h (3 Bft) 100,00 %
01.05.2018 18:02 15,0 C 16,1 C 14,4 C 48 % 0 lf 1011,3 hPa 0,0 l/m 2 min 0 min 393 W/m 15,8 km/h (3 Bft) 97,22 %
01.05.2018 18:04 15,1 C 16,1 C 15,0 C 48 % 0 lf 1011,4 hPa 0,0 l/m 2 min 0 min 436 W/m 13,5 km/h (3 Bft) 97,87 %
01.05.2018 18:08 15,2 C 16,1 C 15,0 C 48 % 0 lf 1011,4 hPa 0,0 l/m 4 min 0 min 420 W/m 11,3 km/h (2 Bft) 100,00 %
01.05.2018 18:10 15,2 C 16,1 C 14,4 C 48 % 0 lf 1011,2 hPa 0,0 l/m 2 min 0 min 401 W/m 20,3 km/h (4 Bft) 100,00 %
01.05.2018 18:12 15,3 C 16,1 C 14,4 C 47 % 0 lf 1011,3 hPa 0,0 l/m 2 min 0 min 395 W/m 22,5 km/h (4 Bft) 97,87 %
01.05.2018 18:14 15,3 C 16,1 C 14,4 C 47 % 0 lf 1011,3 hPa 0,0 l/m 2 min 0 min 393 W/m 15,8 km/h (3 Bft) 100,00 %
01.05.2018 18:16 15,3 C 16,1 C 14,4 C 47 % 0 lf 1011,3 hPa 0,0 l/m 2 min 0 min 386 W/m 24,8 km/h (4 Bft) 100,00 %
01.05.2018 18:18 15,3 C 15,6 C 13,9 C 47 % 0 lf 1011,4 hPa 0,0 l/m 2 min 0 min 376 W/m 15,8 km/h (3 Bft) 100,00 %
01.05.2018 18:20 15,3 C 15,6 C 13,9 C 49 % 0 lf 1011,3 hPa 0,0 l/m 2 min 0 min 368 W/m 24,8 km/h (4 Bft) 97,87 %
01.05.2018 18:22 15,3 C 15,6 C 13,9 C 48 % 0 lf 1011,3 hPa 0,0 l/m 2 min 0 min 363 W/m 22,5 km/h (4 Bft) 97,87 %
01.05.2018 18:24 15,3 C 15,6 C 13,9 C 48 % 0 lf 1011,4 hPa 0,0 l/m 2 min 0 min 357 W/m 20,3 km/h (4 Bft) 93,48 %
01.05.2018 18:26 15,2 C 15,6 C 13,9 C 49 % 0 lf 1011,5 hPa 0,0 l/m 2 min 0 min 336 W/m 15,8 km/h (3 Bft) 97,78 %
01.05.2018 18:28 15,2 C 15,0 C 13,9 C 48 % 0 lf 1011,5 hPa 0,0 l/m 2 min 0 min 333 W/m 18,0 km/h (3 Bft) 97,87 %
01.05.2018 18:30 15,1 C 15,0 C 13,3 C 48 % 0 lf 1011,4 hPa 0,0 l/m 2 min 0 min 334 W/m 20,3 km/h (4 Bft) 97,87 %
01.05.2018 18:32 15,0 C 15,0 C 13,3 C 47 % 0 lf 1011,4 hPa 0,0 l/m 2 min 0 min 319 W/m 20,3 km/h (4 Bft) 95,74 %
01.05.2018 18:34 14,9 C 14,4 C 13,3 C 47 % 0 lf 1011,4 hPa 0,0 l/m 2 min 0 min 305 W/m 18,0 km/h (3 Bft) 93,75 %
01.05.2018 18:36 14,9 C 14,4 C 13,3 C 47 % 0 lf 1011,4 hPa 0,0 l/m 2 min 0 min 305 W/m 11,3 km/h (2 Bft) 95,65 %
01.05.2018 18:38 14,8 C 14,4 C 13,9 C 48 % 0 lf 1011,5 hPa 0,0 l/m 2 min 0 min 276 W/m 20,3 km/h (4 Bft) 95,74 %
01.05.2018 18:40 14,8 C 14,4 C 13,3 C 48 % 0 lf 1011,5 hPa 0,0 l/m 2 min 0 min 306 W/m 15,8 km/h (3 Bft) 95,74 %
01.05.2018 18:42 14,8 C 14,4 C 13,3 C 49 % 0 lf 1011,5 hPa 0,0 l/m 0 min 0 min 131 W/m 13,5 km/h (3 Bft) 93,62 %
01.05.2018 18:44 14,8 C 14,4 C 13,3 C 49 % 0 lf 1011,4 hPa 0,0 l/m 0 min 0 min 145 W/m 9,0 km/h (2 Bft) 97,87 %
01.05.2018 18:46 14,7 C 13,9 C 12,8 C 49 % 0 lf 1011,4 hPa 0,0 l/m 0 min 0 min 83 W/m 11,3 km/h (2 Bft) 95,74 %
01.05.2018 18:48 14,6 C 13,9 C 12,2 C 50 % 0 lf 1011,4 hPa 0,0 l/m 0 min 0 min 77 W/m 15,8 km/h (3 Bft) 95,65 %
01.05.2018 18:50 14,5 C 13,3 C 12,2 C 50 % 0 lf 1011,4 hPa 0,0 l/m 0 min 0 min 75 W/m 11,3 km/h (2 Bft) 93,62 %
01.05.2018 18:52 14,4 C 13,3 C 12,2 C 50 % 0 lf 1011,4 hPa 0,0 l/m 0 min 0 min 74 W/m 13,5 km/h (3 Bft) 93,62 %
01.05.2018 18:54 14,4 C 13,3 C 12,2 C 50 % 0 lf 1011,4 hPa 0,0 l/m 0 min 0 min 72 W/m 13,5 km/h (3 Bft) 91,49 %
01.05.2018 18:56 14,3 C 13,3 C 12,2 C 51 % 0 lf 1011,4 hPa 0,0 l/m 0 min 0 min 73 W/m 9,0 km/h (2 Bft) 89,36 %
01.05.2018 18:58 14,2 C 12,8 C 12,2 C 51 % 0 lf 1011,4 hPa 0,0 l/m 0 min 0 min 76 W/m 11,3 km/h (2 Bft) 93,62 %
01.05.2018 19:00 14,2 C 12,8 C 11,7 C 52 % 0 lf 1011,4 hPa 0,0 l/m 0 min 0 min 77 W/m 9,0 km/h (2 Bft) 93,48 %
01.05.2018 19:02 14,2 C 12,8 C 12,2 C 52 % 0 lf 1011,4 hPa 0,0 l/m 0 min 0 min 80 W/m 6,8 km/h (2 Bft) 93,62 %
01.05.2018 19:04 14,1 C 12,8 C 12,2 C 52 % 0 lf 1011,4 hPa 0,0 l/m 0 min 0 min 80 W/m 9,0 km/h (2 Bft) 93,62 %
01.05.2018 19:06 14,0 C 12,8 C 12,2 C 52 % 0 lf 1011,4 hPa 0,0 l/m 0 min 0 min 77 W/m 9,0 km/h (2 Bft) 91,49 %
01.05.2018 19:08 13,9 C 12,8 C 12,2 C 53 % 0 lf 1011,4 hPa 0,0 l/m 0 min 0 min 76 W/m 9,0 km/h (2 Bft) 93,62 %
01.05.2018 19:10 13,8 C 12,8 C 12,2 C 53 % 0 lf 1011,4 hPa 0,0 l/m 0 min 0 min 78 W/m 6,8 km/h (2 Bft) 93,75 %
01.05.2018 19:12 13,7 C 12,8 C 12,2 C 53 % 0 lf 1011,4 hPa 0,0 l/m 0 min 0 min 77 W/m 6,8 km/h (2 Bft) 91,30 %
01.05.2018 19:14 13,7 C 12,8 C 12,2 C 54 % 0 lf 1011,4 hPa 0,0 l/m 0 min 0 min 76 W/m 6,8 km/h (2 Bft) 93,62 %
01.05.2018 19:16 13,6 C 12,8 C 12,2 C 54 % 0 lf 1011,4 hPa 0,0 l/m 0 min 0 min 72 W/m 4,5 km/h (1 Bft) 95,74 %
01.05.2018 19:18 13,6 C 12,8 C 12,2 C 53 % 0 lf 1011,4 hPa 0,0 l/m 0 min 0 min 70 W/m 6,8 km/h (2 Bft) 95,74 %
01.05.2018 19:20 13,5 C 12,8 C 12,2 C 54 % 0 lf 1011,4 hPa 0,0 l/m 0 min 0 min 72 W/m 9,0 km/h (2 Bft) 97,87 %
01.05.2018 19:22 13,5 C 12,8 C 12,2 C 54 % 0 lf 1011,4 hPa 0,0 l/m 0 min 0 min 69 W/m 4,5 km/h (1 Bft) 93,62 %
01.05.2018 19:24 13,4 C 13,3 C 12,2 C 54 % 0 lf 1011,4 hPa 0,0 l/m 0 min 0 min 66 W/m 6,8 km/h (2 Bft) 95,65 %
01.05.2018 19:26 13,4 C 12,8 C 12,2 C 54 % 0 lf 1011,4 hPa 0,0 l/m 0 min 0 min 64 W/m 9,0 km/h (2 Bft) 95,74 %
01.05.2018 19:28 13,3 C 12,8 C 12,2 C 55 % 0 lf 1011,4 hPa 0,0 l/m 0 min 0 min 60 W/m 6,8 km/h (2 Bft) 95,74 %
01.05.2018 19:30 13,3 C 12,8 C 12,2 C 55 % 0 lf 1011,4 hPa 0,0 l/m 0 min 0 min 54 W/m 9,0 km/h (2 Bft) 95,35 %
01.05.2018 19:32 13,3 C 12,8 C 11,7 C 55 % 0 lf 1011,5 hPa 0,0 l/m 0 min 0 min 49 W/m 6,8 km/h (2 Bft) 91,49 %
01.05.2018 19:34 13,2 C 12,8 C 11,7 C 56 % 0 lf 1011,4 hPa 0,0 l/m 0 min 0 min 49 W/m 9,0 km/h (2 Bft) 93,62 %
01.05.2018 19:36 13,2 C 12,8 C 11,7 C 56 % 0 lf 1011,4 hPa 0,0 l/m 0 min 0 min 77 W/m 11,3 km/h (2 Bft) 97,83 %
01.05.2018 19:38 13,2 C 12,8 C 11,7 C 56 % 0 lf 1011,4 hPa 0,0 l/m 0 min 0 min 55 W/m 11,3 km/h (2 Bft) 100,00 %
01.05.2018 19:40 13,2 C 12,8 C 11,7 C 56 % 0 lf 1011,4 hPa 0,0 l/m 0 min 0 min 53 W/m 11,3 km/h (2 Bft) 100,00 %
01.05.2018 19:42 13,1 C 12,8 C 12,2 C 57 % 0 lf 1011,5 hPa 0,0 l/m 0 min 0 min 70 W/m 11,3 km/h (2 Bft) 100,00 %
01.05.2018 19:44 13,1 C 12,8 C 12,8 C 57 % 0 lf 1011,5 hPa 0,0 l/m 2 min 0 min 96 W/m 6,8 km/h (2 Bft) 97,87 %
01.05.2018 19:46 13,1 C 12,8 C 12,8 C 58 % 0 lf 1011,4 hPa 0,0 l/m 2 min 0 min 86 W/m 4,5 km/h (1 Bft) 95,65 %
01.05.2018 19:48 13,1 C 12,8 C 12,8 C 58 % 0 lf 1011,4 hPa 0,0 l/m 2 min 0 min 80 W/m 11,3 km/h (2 Bft) 95,74 %
01.05.2018 19:50 13,1 C 12,8 C 12,2 C 58 % 0 lf 1011,5 hPa 0,0 l/m 2 min 0 min 80 W/m 13,5 km/h (3 Bft) 97,87 %
01.05.2018 19:52 13,1 C 12,8 C 12,2 C 58 % 0 lf 1011,5 hPa 0,0 l/m 2 min 0 min 76 W/m 13,5 km/h (3 Bft) 97,87 %
01.05.2018 19:54 13,1 C 12,8 C 12,2 C 58 % 0 lf 1011,5 hPa 0,0 l/m 0 min 0 min 61 W/m 13,5 km/h (3 Bft) 97,87 %
01.05.2018 19:56 13,1 C 12,8 C 11,7 C 58 % 0 lf 1011,6 hPa 0,0 l/m 0 min 0 min 44 W/m 13,5 km/h (3 Bft) 97,87 %
01.05.2018 19:58 13,1 C 12,8 C 11,7 C 59 % 0 lf 1011,5 hPa 0,0 l/m 0 min 0 min 40 W/m 11,3 km/h (2 Bft) 97,83 %
01.05.2018 20:00 13,1 C 12,8 C 11,7 C 59 % 0 lf 1011,5 hPa 0,0 l/m 0 min 0 min 39 W/m 13,5 km/h (3 Bft) 97,87 %
01.05.2018 20:02 13,1 C 12,8 C 11,7 C 60 % 0 lf 1011,5 hPa 0,0 l/m 0 min 0 min 37 W/m 20,3 km/h (4 Bft) 97,87 %
01.05.2018 20:04 13,0 C 12,2 C 11,7 C 60 % 0 lf 1011,6 hPa 0,0 l/m 0 min 0 min 33 W/m 9,0 km/h (2 Bft) 93,62 %
01.05.2018 20:06 13,0 C 12,2 C 11,7 C 60 % 0 lf 1011,5 hPa 0,0 l/m 0 min 0 min 32 W/m 18,0 km/h (3 Bft) 93,62 %
01.05.2018 20:08 12,9 C 12,2 C 11,7 C 60 % 0 lf 1011,6 hPa 0,0 l/m 0 min 0 min 29 W/m 18,0 km/h (3 Bft) 97,87 %
01.05.2018 20:10 12,9 C 12,2 C 11,1 C 60 % 0 lf 1011,7 hPa 0,0 l/m 0 min 0 min 28 W/m 15,8 km/h (3 Bft) 97,83 %
01.05.2018 20:12 12,8 C 12,2 C 11,1 C 60 % 0 lf 1011,7 hPa 0,0 l/m 0 min 0 min 26 W/m 11,3 km/h (2 Bft) 95,74 %
01.05.2018 20:14 12,8 C 12,2 C 11,1 C 61 % 0 lf 1011,7 hPa 0,0 l/m 0 min 0 min 26 W/m 9,0 km/h (2 Bft) 97,87 %
01.05.2018 20:16 12,8 C 12,2 C 11,1 C 61 % 0 lf 1011,8 hPa 0,0 l/m 0 min 0 min 25 W/m 13,5 km/h (3 Bft) 97,87 %
01.05.2018 20:18 12,8 C 12,2 C 11,1 C 61 % 0 lf 1011,8 hPa 0,0 l/m 0 min 0 min 24 W/m 15,8 km/h (3 Bft) 97,87 %
01.05.2018 20:20 12,7 C 12,2 C 11,1 C 61 % 0 lf 1011,8 hPa 0,0 l/m 0 min 0 min 23 W/m 13,5 km/h (3 Bft) 95,74 %
01.05.2018 20:22 12,7 C 12,2 C 11,1 C 62 % 0 lf 1011,8 hPa 0,0 l/m 0 min 0 min 23 W/m 9,0 km/h (2 Bft) 97,83 %
01.05.2018 20:24 12,7 C 12,2 C 11,1 C 62 % 0 lf 1011,8 hPa 0,0 l/m 0 min 0 min 22 W/m 11,3 km/h (2 Bft) 97,87 %
01.05.2018 20:26 12,6 C 11,7 C 11,1 C 62 % 0 lf 1011,8 hPa 0,0 l/m 0 min 0 min 19 W/m 13,5 km/h (3 Bft) 97,87 %
01.05.2018 20:28 12,6 C 11,7 C 11,1 C 62 % 0 lf 1011,8 hPa 0,0 l/m 0 min 0 min 17 W/m 15,8 km/h (3 Bft) 97,87 %
01.05.2018 20:30 12,6 C 11,7 C 10,6 C 62 % 0 lf 1011,8 hPa 0,0 l/m 0 min 0 min 15 W/m 18,0 km/h (3 Bft) 95,74 %
01.05.2018 20:32 12,5 C 11,7 C 10,6 C 62 % 0 lf 1011,8 hPa 0,0 l/m 0 min 0 min 12 W/m 9,0 km/h (2 Bft) 97,87 %
01.05.2018 20:34 12,5 C 11,7 C 10,6 C 62 % 0 lf 1011,8 hPa 0,0 l/m 0 min 0 min 12 W/m 11,3 km/h (2 Bft) 97,83 %
01.05.2018 20:36 12,4 C 11,7 C 10,6 C 62 % 0 lf 1011,8 hPa 0,0 l/m 0 min 0 min 11 W/m 18,0 km/h (3 Bft) 95,74 %
01.05.2018 20:38 12,4 C 11,7 C 10,6 C 62 % 0 lf 1011,8 hPa 0,0 l/m 0 min 0 min 10 W/m 11,3 km/h (2 Bft) 100,00 %
01.05.2018 20:40 12,4 C 11,7 C 10,6 C 62 % 0 lf 1011,8 hPa 0,0 l/m 0 min 0 min 9 W/m 9,0 km/h (2 Bft) 100,00 %
01.05.2018 20:42 12,3 C 11,7 C 10,6 C 62 % 0 lf 1011,9 hPa 0,0 l/m 0 min 0 min 8 W/m 9,0 km/h (2 Bft) 100,00 %
01.05.2018 20:44 12,3 C 11,7 C 10,6 C 63 % 0 lf 1011,8 hPa 0,0 l/m 0 min 0 min 7 W/m 9,0 km/h (2 Bft) 100,00 %
01.05.2018 20:46 12,3 C 11,7 C 10,6 C 63 % 0 lf 1011,8 hPa 0,0 l/m 0 min 0 min 6 W/m 6,8 km/h (2 Bft) 97,83 %
01.05.2018 20:48 12,3 C 11,7 C 10,6 C 63 % 0 lf 1011,9 hPa 0,0 l/m 0 min 0 min 5 W/m 11,3 km/h (2 Bft) 100,00 %
01.05.2018 20:50 12,2 C 11,7 C 10,6 C 63 % 0 lf 1011,9 hPa 0,0 l/m 0 min 0 min 5 W/m 9,0 km/h (2 Bft) 100,00 %
01.05.2018 20:52 12,2 C 11,7 C 10,6 C 63 % 0 lf 1011,9 hPa 0,0 l/m 0 min 0 min 5 W/m 6,8 km/h (2 Bft) 100,00 %
01.05.2018 20:54 12,2 C 11,7 C 10,6 C 63 % 0 lf 1011,9 hPa 0,0 l/m 0 min 0 min 2 W/m 9,0 km/h (2 Bft) 95,74 %
01.05.2018 20:56 12,2 C 11,1 C 10,0 C 63 % 0 lf 1011,9 hPa 0,0 l/m 0 min 0 min 0 W/m 6,8 km/h (2 Bft) 95,65 %
01.05.2018 20:58 12,1 C 11,1 C 10,0 C 63 % 0 lf 1011,9 hPa 0,0 l/m 0 min 0 min 0 W/m 13,5 km/h (3 Bft) 97,87 %
01.05.2018 21:00 12,1 C 11,1 C 10,0 C 63 % 0 lf 1011,9 hPa 0,0 l/m 0 min 0 min 0 W/m 6,8 km/h (2 Bft) 97,87 %
01.05.2018 21:02 12,1 C 11,1 C 10,0 C 63 % 0 lf 1011,9 hPa 0,0 l/m 0 min 0 min 0 W/m 4,5 km/h (1 Bft) 95,74 %
01.05.2018 21:04 12,1 C 11,1 C 10,0 C 63 % 0 lf 1011,9 hPa 0,0 l/m 0 min 0 min 0 W/m 9,0 km/h (2 Bft) 97,87 %
01.05.2018 21:06 12,0 C 11,1 C 10,0 C 64 % 0 lf 1012,0 hPa 0,0 l/m 0 min 0 min 0 W/m 6,8 km/h (2 Bft) 95,74 %
01.05.2018 21:08 12,0 C 11,1 C 10,0 C 64 % 0 lf 1012,0 hPa 0,0 l/m 0 min 0 min 0 W/m 9,0 km/h (2 Bft) 95,65 %
01.05.2018 21:10 12,0 C 11,1 C 10,0 C 64 % 0 lf 1012,0 hPa 0,0 l/m 0 min 0 min 0 W/m 6,8 km/h (2 Bft) 95,74 %
01.05.2018 21:12 11,9 C 11,1 C 10,0 C 64 % 0 lf 1012,0 hPa 0,0 l/m 0 min 0 min 0 W/m 9,0 km/h (2 Bft) 97,87 %
01.05.2018 21:14 11,9 C 11,1 C 10,0 C 64 % 0 lf 1012,0 hPa 0,0 l/m 0 min 0 min 0 W/m 11,3 km/h (2 Bft) 95,74 %
01.05.2018 21:16 11,9 C 11,1 C 10,0 C 64 % 0 lf 1012,0 hPa 0,0 l/m 0 min 0 min 0 W/m 9,0 km/h (2 Bft) 93,62 %
01.05.2018 21:18 11,9 C 11,1 C 10,0 C 64 % 0 lf 1012,0 hPa 0,0 l/m 0 min 0 min 0 W/m 9,0 km/h (2 Bft) 97,87 %
01.05.2018 21:20 11,9 C 11,1 C 10,0 C 65 % 0 lf 1012,0 hPa 0,0 l/m 0 min 0 min 0 W/m 9,0 km/h (2 Bft) 95,65 %
01.05.2018 21:22 11,9 C 11,1 C 10,0 C 65 % 0 lf 1012,0 hPa 0,0 l/m 0 min 0 min 0 W/m 9,0 km/h (2 Bft) 93,62 %
01.05.2018 21:24 11,8 C 11,1 C 10,0 C 65 % 0 lf 1012,0 hPa 0,0 l/m 0 min 0 min 0 W/m 13,5 km/h (3 Bft) 95,74 %
01.05.2018 21:26 11,8 C 11,1 C 10,0 C 65 % 0 lf 1012,0 hPa 0,0 l/m 0 min 0 min 0 W/m 9,0 km/h (2 Bft) 93,62 %
01.05.2018 21:28 11,8 C 11,1 C 10,0 C 65 % 0 lf 1012,0 hPa 0,0 l/m 0 min 0 min 0 W/m 11,3 km/h (2 Bft) 93,62 %
01.05.2018 21:30 11,8 C 11,1 C 10,0 C 65 % 0 lf 1012,0 hPa 0,0 l/m 0 min 0 min 0 W/m 11,3 km/h (2 Bft) 91,49 %
01.05.2018 21:32 11,8 C 11,1 C 10,0 C 66 % 0 lf 1012,1 hPa 0,0 l/m 0 min 0 min 0 W/m 9,0 km/h (2 Bft) 97,83 %
01.05.2018 21:34 11,7 C 11,1 C 9,4 C 66 % 0 lf 1012,1 hPa 0,0 l/m 0 min 0 min 0 W/m 11,3 km/h (2 Bft) 95,74 %
01.05.2018 21:36 11,7 C 10,6 C 9,4 C 66 % 0 lf 1012,1 hPa 0,0 l/m 0 min 0 min 0 W/m 9,0 km/h (2 Bft) 93,62 %
01.05.2018 21:38 11,7 C 10,6 C 9,4 C 66 % 0 lf 1012,1 hPa 0,0 l/m 0 min 0 min 0 W/m 11,3 km/h (2 Bft) 95,74 %
01.05.2018 21:40 11,7 C 10,6 C 9,4 C 66 % 0 lf 1012,1 hPa 0,0 l/m 0 min 0 min 0 W/m 11,3 km/h (2 Bft) 97,87 %
01.05.2018 21:42 11,7 C 10,6 C 9,4 C 66 % 0 lf 1012,1 hPa 0,0 l/m 0 min 0 min 0 W/m 11,3 km/h (2 Bft) 94,29 %
01.05.2018 21:44 11,6 C 10,6 C 9,4 C 66 % 0 lf 1012,1 hPa 0,0 l/m 0 min 0 min 0 W/m 11,3 km/h (2 Bft) 95,16 %
01.05.2018 21:46 11,6 C 10,6 C 9,4 C 66 % 0 lf 1012,1 hPa 0,0 l/m 0 min 0 min 0 W/m 11,3 km/h (2 Bft) 93,62 %
01.05.2018 21:48 11,6 C 10,6 C 9,4 C 66 % 0 lf 1012,1 hPa 0,0 l/m 0 min 0 min 0 W/m 9,0 km/h (2 Bft) 95,74 %
01.05.2018 21:50 11,6 C 10,6 C 9,4 C 66 % 0 lf 1012,2 hPa 0,0 l/m 0 min 0 min 0 W/m 6,8 km/h (2 Bft) 97,87 %
01.05.2018 21:52 11,6 C 10,6 C 8,9 C 66 % 0 lf 1012,2 hPa 0,0 l/m 0 min 0 min 0 W/m 4,5 km/h (1 Bft) 95,74 %
01.05.2018 21:54 11,5 C 10,6 C 8,9 C 67 % 0 lf 1012,2 hPa 0,0 l/m 0 min 0 min 0 W/m 9,0 km/h (2 Bft) 95,65 %
01.05.2018 21:56 11,5 C 10,6 C 8,9 C 67 % 0 lf 1012,3 hPa 0,0 l/m 0 min 0 min 0 W/m 9,0 km/h (2 Bft) 95,74 %
01.05.2018 21:58 11,5 C 10,0 C 8,9 C 67 % 0 lf 1012,2 hPa 0,0 l/m 0 min 0 min 0 W/m 9,0 km/h (2 Bft) 95,74 %
01.05.2018 22:00 11,4 C 10,0 C 8,9 C 67 % 0 lf 1012,2 hPa 0,0 l/m 0 min 0 min 0 W/m 9,0 km/h (2 Bft) 95,74 %
01.05.2018 22:02 11,4 C 10,0 C 8,3 C 67 % 0 lf 1012,2 hPa 0,0 l/m 0 min 0 min 0 W/m 6,8 km/h (2 Bft) 93,62 %
01.05.2018 22:04 11,4 C 10,0 C 8,3 C 67 % 0 lf 1012,3 hPa 0,0 l/m 0 min 0 min 0 W/m 9,0 km/h (2 Bft) 93,62 %
01.05.2018 22:06 11,4 C 10,0 C 8,3 C 67 % 0 lf 1012,3 hPa 0,0 l/m 0 min 0 min 0 W/m 9,0 km/h (2 Bft) 95,92 %
01.05.2018 22:08 11,3 C 10,0 C 8,3 C 67 % 0 lf 1012,3 hPa 0,0 l/m 0 min 0 min 0 W/m 6,8 km/h (2 Bft) 93,62 %
01.05.2018 22:10 11,3 C 10,0 C 8,3 C 68 % 0 lf 1012,3 hPa 0,0 l/m 0 min 0 min 0 W/m 4,5 km/h (1 Bft) 97,87 %
01.05.2018 22:12 11,3 C 10,0 C 7,8 C 68 % 0 lf 1012,4 hPa 0,0 l/m 0 min 0 min 0 W/m 6,8 km/h (2 Bft) 97,87 %
01.05.2018 22:14 11,2 C 10,0 C 7,8 C 68 % 0 lf 1012,3 hPa 0,0 l/m 0 min 0 min 0 W/m 6,8 km/h (2 Bft) 97,87 %
01.05.2018 22:16 11,2 C 9,4 C 7,8 C 68 % 0 lf 1012,3 hPa 0,0 l/m 0 min 0 min 0 W/m 9,0 km/h (2 Bft) 95,74 %
01.05.2018 22:18 11,2 C 10,0 C 7,8 C 68 % 0 lf 1012,3 hPa 0,0 l/m 0 min 0 min 0 W/m 9,0 km/h (2 Bft) 95,65 %
01.05.2018 22:20 11,1 C 10,0 C 7,8 C 68 % 0 lf 1012,3 hPa 0,0 l/m 0 min 0 min 0 W/m 6,8 km/h (2 Bft) 95,74 %
01.05.2018 22:22 11,1 C 9,4 C 7,8 C 68 % 0 lf 1012,4 hPa 0,0 l/m 0 min 0 min 0 W/m 9,0 km/h (2 Bft) 95,74 %
01.05.2018 22:24 11,1 C 9,4 C 7,8 C 69 % 0 lf 1012,4 hPa 0,0 l/m 0 min 0 min 0 W/m 6,8 km/h (2 Bft) 95,74 %
01.05.2018 22:26 11,0 C 9,4 C 7,2 C 68 % 0 lf 1012,4 hPa 0,0 l/m 0 min 0 min 0 W/m 9,0 km/h (2 Bft) 95,74 %
01.05.2018 22:28 10,9 C 9,4 C 7,2 C 69 % 0 lf 1012,4 hPa 0,0 l/m 0 min 0 min 0 W/m 9,0 km/h (2 Bft) 97,87 %
01.05.2018 22:30 10,9 C 9,4 C 7,2 C 69 % 0 lf 1012,4 hPa 0,0 l/m 0 min 0 min 0 W/m 9,0 km/h (2 Bft) 95,65 %
01.05.2018 22:32 10,9 C 9,4 C 7,2 C 69 % 0 lf 1012,4 hPa 0,0 l/m 0 min 0 min 0 W/m 6,8 km/h (2 Bft) 95,74 %
01.05.2018 22:34 10,8 C 8,9 C 7,2 C 69 % 0 lf 1012,4 hPa 0,0 l/m 0 min 0 min 0 W/m 6,8 km/h (2 Bft) 95,74 %
01.05.2018 22:36 10,8 C 8,9 C 7,2 C 70 % 0 lf 1012,5 hPa 0,0 l/m 0 min 0 min 0 W/m 6,8 km/h (2 Bft) 95,74 %
01.05.2018 22:38 10,8 C 8,9 C 6,7 C 70 % 0 lf 1012,5 hPa 0,0 l/m 0 min 0 min 0 W/m 9,0 km/h (2 Bft) 97,87 %
01.05.2018 22:40 10,7 C 8,9 C 6,7 C 70 % 0 lf 1012,5 hPa 0,0 l/m 0 min 0 min 0 W/m 4,5 km/h (1 Bft) 95,74 %
01.05.2018 22:42 10,7 C 8,9 C 6,7 C 70 % 0 lf 1012,5 hPa 0,0 l/m 0 min 0 min 0 W/m 6,8 km/h (2 Bft) 100,00 %
01.05.2018 22:44 10,6 C 8,9 C 6,7 C 71 % 0 lf 1012,4 hPa 0,0 l/m 0 min 0 min 0 W/m 6,8 km/h (2 Bft) 100,00 %
01.05.2018 22:46 10,6 C 8,9 C 6,7 C 71 % 0 lf 1012,5 hPa 0,0 l/m 0 min 0 min 0 W/m 4,5 km/h (1 Bft) 95,74 %
01.05.2018 22:48 10,6 C 8,9 C 6,7 C 71 % 0 lf 1012,5 hPa 0,0 l/m 0 min 0 min 0 W/m 4,5 km/h (1 Bft) 97,87 %
01.05.2018 22:50 10,4 C 8,9 C 6,1 C 71 % 0 lf 1012,5 hPa 0,0 l/m 0 min 0 min 0 W/m 4,5 km/h (1 Bft) 95,74 %
01.05.2018 22:52 10,4 C 8,3 C 6,1 C 72 % 0 lf 1012,5 hPa 0,0 l/m 0 min 0 min 0 W/m 6,8 km/h (2 Bft) 91,49 %
01.05.2018 22:54 10,4 C 8,3 C 6,1 C 72 % 0 lf 1012,5 hPa 0,0 l/m 0 min 0 min 0 W/m 6,8 km/h (2 Bft) 95,65 %
01.05.2018 22:56 10,3 C 8,3 C 6,1 C 72 % 0 lf 1012,5 hPa 0,0 l/m 0 min 0 min 0 W/m 6,8 km/h (2 Bft) 93,62 %
01.05.2018 22:58 10,3 C 8,3 C 6,1 C 72 % 0 lf 1012,5 hPa 0,0 l/m 0 min 0 min 0 W/m 9,0 km/h (2 Bft) 95,74 %
01.05.2018 23:00 10,2 C 8,3 C 6,1 C 72 % 0 lf 1012,5 hPa 0,0 l/m 0 min 0 min 0 W/m 9,0 km/h (2 Bft) 97,87 %
01.05.2018 23:02 10,1 C 8,3 C 6,1 C 73 % 0 lf 1012,5 hPa 0,0 l/m 0 min 0 min 0 W/m 13,5 km/h (3 Bft) 97,87 %
01.05.2018 23:04 10,1 C 8,3 C 6,1 C 73 % 0 lf 1012,5 hPa 0,0 l/m 0 min 0 min 0 W/m 9,0 km/h (2 Bft) 95,74 %
01.05.2018 23:06 10,0 C 8,3 C 6,1 C 73 % 0 lf 1012,5 hPa 0,0 l/m 0 min 0 min 0 W/m 9,0 km/h (2 Bft) 95,65 %
01.05.2018 23:08 9,9 C 8,3 C 6,1 C 73 % 0 lf 1012,5 hPa 0,0 l/m 0 min 0 min 0 W/m 13,5 km/h (3 Bft) 91,49 %
01.05.2018 23:10 9,9 C 8,3 C 6,7 C 73 % 0 lf 1012,5 hPa 0,0 l/m 0 min 0 min 0 W/m 9,0 km/h (2 Bft) 95,74 %
01.05.2018 23:12 9,8 C 8,3 C 6,1 C 73 % 0 lf 1012,5 hPa 0,0 l/m 0 min 0 min 0 W/m 6,8 km/h (2 Bft) 95,74 %
01.05.2018 23:14 9,8 C 8,3 C 6,1 C 74 % 0 lf 1012,6 hPa 0,0 l/m 0 min 0 min 0 W/m 4,5 km/h (1 Bft) 95,74 %
01.05.2018 23:16 9,7 C 8,3 C 6,1 C 74 % 0 lf 1012,6 hPa 0,0 l/m 0 min 0 min 0 W/m 6,8 km/h (2 Bft) 91,30 %
01.05.2018 23:18 9,7 C 8,3 C 6,1 C 74 % 0 lf 1012,5 hPa 0,0 l/m 0 min 0 min 0 W/m 4,5 km/h (1 Bft) 95,74 %
01.05.2018 23:20 9,7 C 8,3 C 6,1 C 74 % 0 lf 1012,5 hPa 0,0 l/m 0 min 0 min 0 W/m 4,5 km/h (1 Bft) 93,62 %
01.05.2018 23:22 9,6 C 8,3 C 6,1 C 74 % 0 lf 1012,5 hPa 0,0 l/m 0 min 0 min 0 W/m 6,8 km/h (2 Bft) 93,62 %
01.05.2018 23:24 9,6 C 8,3 C 5,6 C 74 % 0 lf 1012,5 hPa 0,0 l/m 0 min 0 min 0 W/m 6,8 km/h (2 Bft) 91,49 %
01.05.2018 23:26 9,5 C 7,8 C 6,1 C 75 % 0 lf 1012,6 hPa 0,0 l/m 0 min 0 min 0 W/m 6,8 km/h (2 Bft) 91,49 %
01.05.2018 23:28 9,4 C 7,8 C 5,6 C 75 % 0 lf 1012,5 hPa 0,0 l/m 0 min 0 min 0 W/m 6,8 km/h (2 Bft) 95,65 %
01.05.2018 23:30 9,4 C 7,8 C 6,1 C 75 % 0 lf 1012,6 hPa 0,0 l/m 0 min 0 min 0 W/m 6,8 km/h (2 Bft) 93,62 %
01.05.2018 23:32 9,4 C 7,8 C 5,6 C 75 % 0 lf 1012,5 hPa 0,0 l/m 0 min 0 min 0 W/m 4,5 km/h (1 Bft) 93,62 %
01.05.2018 23:34 9,3 C 7,8 C 5,6 C 76 % 0 lf 1012,5 hPa 0,0 l/m 0 min 0 min 0 W/m 6,8 km/h (2 Bft) 95,74 %
01.05.2018 23:36 9,3 C 7,8 C 5,6 C 76 % 0 lf 1012,5 hPa 0,0 l/m 0 min 0 min 0 W/m 4,5 km/h (1 Bft) 97,87 %
01.05.2018 23:38 9,2 C 7,8 C 5,6 C 76 % 0 lf 1012,5 hPa 0,0 l/m 0 min 0 min 0 W/m 4,5 km/h (1 Bft) 97,87 %
01.05.2018 23:40 9,2 C 7,2 C 5,6 C 76 % 0 lf 1012,5 hPa 0,0 l/m 0 min 0 min 0 W/m 4,5 km/h (1 Bft) 97,83 %
01.05.2018 23:42 9,2 C 7,2 C 5,6 C 76 % 0 lf 1012,5 hPa 0,0 l/m 0 min 0 min 0 W/m 4,5 km/h (1 Bft) 97,87 %
01.05.2018 23:44 9,1 C 7,2 C 5,6 C 76 % 0 lf 1012,5 hPa 0,0 l/m 0 min 0 min 0 W/m 0,0 km/h (0 Bft) 100,00 %
01.05.2018 23:46 9,1 C 7,2 C 5,0 C 76 % 0 lf 1012,6 hPa 0,0 l/m 0 min 0 min 0 W/m 0,0 km/h (0 Bft) 100,00 %
01.05.2018 23:48 9,0 C 6,7 C 5,0 C 76 % 0 lf 1012,5 hPa 0,0 l/m 0 min 0 min 0 W/m 0,0 km/h (0 Bft) 100,00 %
01.05.2018 23:50 8,9 C 6,7 C 5,0 C 76 % 0 lf 1012,5 hPa 0,0 l/m 0 min 0 min 0 W/m 2,3 km/h (1 Bft) 97,87 %
01.05.2018 23:52 8,9 C 6,7 C 5,0 C 76 % 0 lf 1012,5 hPa 0,0 l/m 0 min 0 min 0 W/m 0,0 km/h (0 Bft) 100,00 %
01.05.2018 23:54 8,8 C 6,7 C 5,0 C 76 % 0 lf 1012,5 hPa 0,0 l/m 0 min 0 min 0 W/m 0,0 km/h (0 Bft) 95,74 %
01.05.2018 23:56 8,8 C 6,7 C 5,0 C 76 % 0 lf 1012,5 hPa 0,0 l/m 0 min 0 min 0 W/m 4,5 km/h (1 Bft) 95,74 %
01.05.2018 23:58 8,8 C 6,7 C 5,0 C 77 % 0 lf 1012,5 hPa 0,0 l/m 0 min 0 min 0 W/m 4,5 km/h (1 Bft) 97,87 %
_ Min-Zeit 04:05 03:54 02:30 17:22 07:04 00:00 - - - - 23:44 04:00
Minimum _ 5,4 C 4,4 C 3,9 C 45 % 0 lf 1000,8 hPa - - - - 0,0 km/h (0 Bft) 86,96 %
_ Max-Zeit 17:40 15:38 15:40 03:10 00:00 23:14 02:48 13:08 04:05 15:30 05:16 00:16
Maximum _ 15,3 C 21,7 C 23,3 C 94 % 15 lf 1012,6 hPa 0,2 l/m 4 min 5 min 911 W/m 58,6 km/h
W-SW (7 Bft)
100,00 %
Durchschnitt _ 9,7 C 10,3 C 9,3 C 73 % 4 lf 1008,4 hPa #0,4 l/m #8:42 h #6:56 h 365 W/m 30,4 km/h (5 Bft) 96,41 %
© 2018 W. Hausmann